<- Previous Day | Today | Next Day ->

All Data for 26 March 2020

 

Time A - D Temp A - D Dew Point A - D Humidity A - D Pressure A - D Wind A - D Wind Dir Gust A - D Rain Rate A - D Rain Total
00:00 3.9 -1.7 67 1021.8 2.2 NE 3.1 0.0 0.0
00:01 3.9 -1.7 67 1021.7 2.2 NE 3.1 0.0 0.0
00:02 3.9 -1.7 67 1021.6 2.2 NE 3.1 0.0 0.0
00:03 3.9 -1.7 67 1021.6 2.2 NE 3.1 0.0 0.0
00:04 3.9 -1.7 67 1021.9 2.2 NE 3.1 0.0 0.0
00:05 3.9 -1.7 67 1021.8 2.2 NE 3.1 0.0 0.0
00:06 3.8 -1.8 67 1021.7 2.2 N 3.1 0.0 0.0
00:08 3.8 -2.0 66 1021.7 3.1 N 3.1 0.0 0.0
00:09 3.8 -2.0 66 1021.7 2.2 NNE 3.1 0.0 0.0
00:10 3.8 -2.0 66 1021.8 2.2 N 3.1 0.0 0.0
00:11 3.8 -2.0 66 1021.7 2.2 N 3.1 0.0 0.0
00:12 3.8 -2.0 66 1021.7 2.2 N 3.1 0.0 0.0
00:13 3.8 -2.0 66 1021.8 2.2 NW 3.1 0.0 0.0
00:14 3.8 -2.0 66 1021.8 1.6 N 3.1 0.0 0.0
00:15 3.8 -2.0 66 1021.6 2.2 N 3.1 0.0 0.0
00:16 3.8 -2.0 66 1021.8 2.2 N 3.1 0.0 0.0
00:17 3.8 -2.0 66 1021.6 2.2 N 3.1 0.0 0.0
00:18 3.7 -2.1 66 1021.7 3.1 N 3.1 0.0 0.0
00:19 3.7 -2.1 66 1021.6 3.1 NE 3.1 0.0 0.0
00:20 3.7 -2.1 66 1021.6 3.1 NNE 3.1 0.0 0.0
00:21 3.7 -2.1 66 1021.7 2.2 NE 3.1 0.0 0.0
00:22 3.7 -2.1 66 1021.7 2.2 E 3.1 0.0 0.0
00:23 3.7 -2.1 66 1021.8 2.2 N 3.1 0.0 0.0
00:25 3.7 -2.1 66 1021.6 2.2 NW 3.1 0.0 0.0
00:26 3.7 -2.1 66 1021.5 2.2 N 3.1 0.0 0.0
00:27 3.7 -2.1 66 1021.6 2.2 N 3.1 0.0 0.0
00:28 3.8 -2.0 66 1021.7 1.6 N 3.1 0.0 0.0
00:29 3.7 -2.1 66 1021.7 3.1 N 3.1 0.0 0.0
00:30 3.8 -2.0 66 1021.7 3.1 N 3.1 0.0 0.0
00:31 3.7 -2.1 66 1021.5 2.2 NE 3.1 0.0 0.0
00:32 3.7 -2.1 66 1021.5 2.2 NE 3.1 0.0 0.0
00:33 3.8 -2.0 66 1021.6 3.1 N 3.1 0.0 0.0
00:34 3.7 -2.1 66 1021.6 3.1 NE 3.1 0.0 0.0
00:35 3.7 -2.1 66 1021.6 2.2 N 3.1 0.0 0.0
00:36 3.7 -2.1 66 1021.5 2.2 NE 3.1 0.0 0.0
00:37 3.8 -2.0 66 1021.5 3.1 NE 3.1 0.0 0.0
00:38 3.8 -2.0 66 1021.5 2.2 N 3.1 0.0 0.0
00:39 3.7 -2.1 66 1021.4 2.2 N 3.1 0.0 0.0
00:40 3.7 -2.1 66 1021.7 2.2 N 3.1 0.0 0.0
00:41 3.7 -2.1 66 1021.4 2.2 N 3.1 0.0 0.0
00:42 3.7 -2.1 66 1021.6 1.6 NE 3.1 0.0 0.0
00:43 3.7 -2.3 65 1021.6 3.1 N 3.1 0.0 0.0
00:44 3.7 -2.3 65 1021.4 1.6 NW 3.1 0.0 0.0
00:45 3.7 -2.3 65 1021.6 2.2 N 3.1 0.0 0.0
00:46 3.7 -2.3 65 1021.6 3.1 N 3.1 0.0 0.0
00:47 3.7 -2.3 65 1021.6 2.2 N 3.1 0.0 0.0
00:48 3.7 -2.3 65 1021.6 2.2 N 3.1 0.0 0.0
00:49 3.7 -2.3 65 1021.6 2.2 N 3.1 0.0 0.0
00:50 3.7 -2.3 65 1021.5 2.2 N 3.1 0.0 0.0
00:51 3.7 -2.3 65 1021.5 2.2 NE 3.1 0.0 0.0
00:52 3.7 -2.3 65 1021.5 2.2 NW 3.1 0.0 0.0
00:53 3.7 -2.3 65 1021.6 2.2 N 3.1 0.0 0.0
00:54 3.7 -2.3 65 1021.6 1.6 N 3.1 0.0 0.0
00:55 3.7 -2.3 65 1021.6 2.2 NE 3.1 0.0 0.0
00:56 3.7 -2.3 65 1021.5 3.1 NE 3.1 0.0 0.0
00:58 3.7 -2.3 65 1021.7 2.2 N 3.1 0.0 0.0
00:59 3.7 -2.3 65 1021.4 3.1 N 3.1 0.0 0.0
01:00 3.7 -2.3 65 1021.7 3.1 N 3.1 0.0 0.0
01:01 3.7 -2.3 65 1021.5 3.1 N 3.1 0.0 0.0
01:02 3.7 -2.3 65 1021.6 3.1 N 3.1 0.0 0.0
01:03 3.7 -2.3 65 1021.6 3.1 N 3.1 0.0 0.0
01:04 3.7 -2.3 65 1021.6 3.1 N 3.1 0.0 0.0
01:05 3.7 -2.3 65 1021.6 3.1 N 3.1 0.0 0.0
01:06 3.8 -2.2 65 1021.5 3.1 NE 3.1 0.0 0.0
01:07 3.8 -2.2 65 1021.6 3.1 NW 3.1 0.0 0.0
01:08 3.8 -2.2 65 1021.6 3.1 N 3.1 0.0 0.0
01:09 3.8 -2.2 65 1021.6 3.1 N 3.1 0.0 0.0
01:10 3.8 -2.4 64 1021.6 2.2 NE 3.1 0.0 0.0
01:11 3.8 -2.4 64 1021.6 3.8 N 3.8 0.0 0.0
01:12 3.8 -2.4 64 1021.6 3.1 N 3.8 0.0 0.0
01:13 3.8 -2.4 64 1021.5 3.1 N 3.8 0.0 0.0
01:14 3.8 -2.4 64 1021.6 2.2 NE 3.8 0.0 0.0
01:16 3.8 -2.4 64 1021.5 3.1 N 3.8 0.0 0.0
01:17 3.8 -2.4 64 1021.5 3.1 NE 3.8 0.0 0.0
01:18 3.8 -2.4 64 1021.5 3.1 N 3.8 0.0 0.0
01:19 3.8 -2.4 64 1021.5 2.2 N 3.8 0.0 0.0
01:20 3.8 -2.6 63 1021.4 2.2 N 3.8 0.0 0.0
01:21 3.8 -2.6 63 1021.5 3.1 N 3.1 0.0 0.0
01:22 3.8 -2.6 63 1021.4 2.2 NE 3.1 0.0 0.0
01:23 3.8 -2.6 63 1021.5 2.2 N 3.1 0.0 0.0
01:24 3.8 -2.6 63 1021.5 2.2 WSW 3.1 0.0 0.0
01:25 3.7 -2.7 63 1021.4 2.2 NW 3.1 0.0 0.0
01:26 3.7 -2.7 63 1021.6 3.1 N 3.1 0.0 0.0
01:27 3.8 -2.6 63 1021.6 3.1 N 3.1 0.0 0.0
01:28 3.7 -2.7 63 1021.5 2.2 NW 3.1 0.0 0.0
01:29 3.7 -2.7 63 1021.6 3.1 NE 3.1 0.0 0.0
01:30 3.7 -2.7 63 1021.6 3.1 NE 3.1 0.0 0.0
01:31 3.7 -2.7 63 1021.5 3.1 N 3.1 0.0 0.0
01:33 3.7 -2.9 62 1021.6 2.2 N 3.1 0.0 0.0
01:34 3.7 -2.9 62 1021.6 3.1 N 3.1 0.0 0.0
01:35 3.7 -2.9 62 1021.5 3.1 N 3.8 0.0 0.0
01:36 3.7 -2.9 62 1021.6 2.2 N 3.8 0.0 0.0
01:37 3.7 -2.9 62 1021.6 2.2 N 3.8 0.0 0.0
01:38 3.7 -2.9 62 1021.6 2.2 N 3.8 0.0 0.0
01:39 3.7 -2.9 62 1021.6 2.2 N 3.8 0.0 0.0
01:40 3.7 -2.9 62 1021.6 2.2 N 3.8 0.0 0.0
01:41 3.7 -2.9 62 1021.7 3.1 NE 3.8 0.0 0.0
01:42 3.7 -2.9 62 1021.5 2.2 NE 3.8 0.0 0.0
01:43 3.6 -3.0 62 1021.5 3.1 N 3.8 0.0 0.0
01:44 3.6 -3.0 62 1021.5 2.2 N 3.8 0.0 0.0
01:45 3.7 -3.1 61 1021.6 3.1 N 3.8 0.0 0.0
01:46 3.6 -3.2 61 1021.4 2.2 NE 3.1 0.0 0.0
01:47 3.7 -3.1 61 1021.5 2.2 N 3.1 0.0 0.0
01:48 3.7 -3.1 61 1021.5 3.1 NE 3.1 0.0 0.0
01:50 3.7 -3.1 61 1021.7 2.2 NE 3.1 0.0 0.0
01:51 3.7 -3.1 61 1021.5 3.1 NE 3.8 0.0 0.0
01:52 3.7 -3.1 61 1021.5 2.2 N 3.8 0.0 0.0
01:53 3.7 -3.1 61 1021.5 2.2 N 3.8 0.0 0.0
01:54 3.7 -3.1 61 1021.5 3.1 N 3.8 0.0 0.0
01:55 3.7 -3.1 61 1021.6 3.1 N 3.8 0.0 0.0
01:56 3.7 -3.3 60 1021.5 3.1 N 3.8 0.0 0.0
01:57 3.7 -3.3 60 1021.5 2.2 NE 3.8 0.0 0.0
01:58 3.7 -3.3 60 1021.5 3.1 NE 3.8 0.0 0.0
01:59 3.7 -3.3 60 1021.5 2.2 NE 3.8 0.0 0.0
02:00 3.8 -3.2 60 1021.6 2.2 N 3.8 0.0 0.0
02:01 3.8 -3.2 60 1021.6 2.2 N 3.8 0.0 0.0
02:02 3.8 -3.2 60 1021.5 3.1 N 3.1 0.0 0.0
02:03 3.8 -3.2 60 1021.5 2.2 NW 3.1 0.0 0.0
02:04 3.8 -3.2 60 1021.6 2.2 N 3.1 0.0 0.0
02:05 3.8 -3.2 60 1021.6 2.2 N 3.1 0.0 0.0
02:06 3.8 -3.2 60 1021.5 3.1 N 3.1 0.0 0.0
02:07 3.8 -3.2 60 1021.6 3.1 NE 3.1 0.0 0.0
02:08 3.9 -3.2 60 1021.6 3.8 NE 3.8 0.0 0.0
02:09 3.9 -3.2 60 1021.6 2.2 N 3.8 0.0 0.0
02:10 3.9 -3.2 60 1021.6 3.1 NE 3.8 0.0 0.0
02:11 3.9 -3.2 60 1021.5 2.2 N 3.8 0.0 0.0
02:12 3.9 -3.2 60 1021.6 1.6 N 3.8 0.0 0.0
02:13 3.9 -3.2 60 1021.7 2.2 N 3.8 0.0 0.0
02:14 3.9 -3.2 60 1021.6 1.6 N 3.8 0.0 0.0
02:15 4.0 -3.1 60 1021.5 3.1 NE 3.8 0.0 0.0
02:16 4.0 -3.1 60 1021.5 3.1 NE 3.8 0.0 0.0
02:17 4.0 -3.1 60 1021.5 3.1 N 3.8 0.0 0.0
02:18 4.0 -3.1 60 1021.5 3.1 NE 3.8 0.0 0.0
02:19 4.0 -3.1 60 1021.6 2.2 N 3.1 0.0 0.0
02:20 4.0 -3.1 60 1021.5 2.2 N 3.1 0.0 0.0
02:21 4.0 -3.1 60 1021.7 3.1 NE 3.1 0.0 0.0
02:22 4.0 -3.1 60 1021.6 2.2 N 3.1 0.0 0.0
02:23 4.0 -3.1 60 1021.6 3.1 NW 3.1 0.0 0.0
02:24 4.1 -3.0 60 1021.6 2.2 NW 3.1 0.0 0.0
02:25 4.1 -3.0 60 1021.7 3.1 NE 3.1 0.0 0.0
02:26 4.1 -2.7 61 1021.6 2.2 N 3.1 0.0 0.0
02:27 4.1 -2.7 61 1021.5 2.2 N 3.1 0.0 0.0
02:29 4.1 -2.7 61 1021.6 1.6 N 3.1 0.0 0.0
02:30 4.1 -2.7 61 1021.6 1.6 N 3.1 0.0 0.0
02:31 4.1 -2.7 61 1021.4 2.2 N 3.1 0.0 0.0
02:32 4.1 -2.7 61 1021.6 1.6 NE 3.1 0.0 0.0
02:33 4.1 -2.7 61 1021.6 0.7 N 3.1 0.0 0.0
02:34 4.1 -2.7 61 1021.5 0.7 N 3.1 0.0 0.0
02:35 4.1 -2.7 61 1021.6 1.6 N 2.2 0.0 0.0
02:36 4.1 -2.7 61 1021.6 1.6 NE 2.2 0.0 0.0
02:37 4.1 -2.7 61 1021.6 1.6 NE 2.2 0.0 0.0
02:38 4.0 -2.8 61 1021.5 1.6 NW 2.2 0.0 0.0
02:39 4.0 -2.8 61 1021.6 1.6 N 2.2 0.0 0.0
02:40 4.0 -2.8 61 1021.5 1.6 N 2.2 0.0 0.0
02:41 4.0 -2.8 61 1021.6 1.6 N 2.2 0.0 0.0
02:42 4.0 -2.8 61 1021.6 2.2 N 2.2 0.0 0.0
02:43 4.0 -2.8 61 1021.4 1.6 N 2.2 0.0 0.0
02:44 4.0 -2.8 61 1021.5 2.2 NE 2.2 0.0 0.0
02:45 4.0 -2.8 61 1021.5 1.6 N 2.2 0.0 0.0
02:47 3.9 -2.9 61 1021.5 2.2 NW 3.1 0.0 0.0
02:48 3.9 -2.9 61 1021.5 2.2 N 3.1 0.0 0.0
02:49 3.9 -2.7 62 1021.4 2.2 N 3.1 0.0 0.0
02:50 3.9 -2.7 62 1021.4 1.6 N 3.1 0.0 0.0
02:51 3.9 -2.7 62 1021.7 2.2 NE 3.1 0.0 0.0
02:52 3.9 -2.7 62 1021.6 1.6 NE 3.1 0.0 0.0
02:53 3.9 -2.7 62 1021.5 2.2 N 3.1 0.0 0.0
02:54 3.9 -2.7 62 1021.5 2.2 N 3.1 0.0 0.0
02:55 3.9 -2.7 62 1021.6 1.6 N 3.1 0.0 0.0
02:56 3.9 -2.7 62 1021.5 2.2 NNE 3.1 0.0 0.0
02:57 3.9 -2.7 62 1021.5 2.2 NE 2.2 0.0 0.0
02:58 3.8 -2.8 62 1021.4 2.2 NE 2.2 0.0 0.0
02:59 3.9 -2.7 62 1021.5 2.2 N 2.2 0.0 0.0
03:00 3.8 -2.8 62 1021.5 2.2 N 2.2 0.0 0.0
03:01 3.8 -2.8 62 1021.5 2.2 N 2.2 0.0 0.0
03:02 3.8 -2.8 62 1021.4 2.2 N 2.2 0.0 0.0
03:03 3.8 -2.8 62 1021.5 2.2 N 2.2 0.0 0.0
03:05 3.8 -2.8 62 1021.4 2.2 N 2.2 0.0 0.0
03:06 3.8 -2.6 63 1021.4 2.2 NE 2.2 0.0 0.0
03:07 3.8 -2.6 63 1021.6 2.2 NE 2.2 0.0 0.0
03:08 3.8 -2.6 63 1021.6 2.2 NE 2.2 0.0 0.0
03:09 3.8 -2.6 63 1021.3 2.2 N 2.2 0.0 0.0
03:10 3.7 -2.7 63 1021.4 2.2 NE 2.2 0.0 0.0
03:11 3.7 -2.7 63 1021.4 2.2 NE 2.2 0.0 0.0
03:12 3.7 -2.7 63 1021.4 2.2 NE 2.2 0.0 0.0
03:13 3.7 -2.7 63 1021.4 1.6 NE 2.2 0.0 0.0
03:14 3.7 -2.7 63 1021.4 2.2 N 2.2 0.0 0.0
03:15 3.7 -2.7 63 1021.3 1.6 NE 2.2 0.0 0.0
03:16 3.7 -2.7 63 1021.5 2.2 N 2.2 0.0 0.0
03:17 3.7 -2.7 63 1021.4 2.2 NW 2.2 0.0 0.0
03:18 3.7 -2.7 63 1021.2 1.6 NW 2.2 0.0 0.0
03:19 3.7 -2.7 63 1021.4 2.2 NW 2.2 0.0 0.0
03:21 3.7 -2.5 64 1021.3 3.1 NW 3.1 0.0 0.0
03:22 3.7 -2.5 64 1021.4 2.2 N 3.1 0.0 0.0
03:23 3.7 -2.5 64 1021.4 1.6 NW 3.1 0.0 0.0
03:24 3.7 -2.5 64 1021.5 3.1 NW 3.1 0.0 0.0
03:25 3.7 -2.5 64 1021.4 3.1 NW 3.1 0.0 0.0
03:26 3.7 -2.5 64 1021.3 3.1 W 3.1 0.0 0.0
03:27 3.6 -2.6 64 1021.4 3.1 N 3.1 0.0 0.0
03:28 3.7 -2.5 64 1021.4 3.1 N 3.1 0.0 0.0
03:29 3.6 -2.6 64 1021.4 3.1 N 3.1 0.0 0.0
03:30 3.6 -2.6 64 1021.4 3.1 NE 3.1 0.0 0.0
03:31 3.6 -2.6 64 1021.4 3.8 N 3.8 0.0 0.0
03:32 3.5 -2.7 64 1021.3 2.2 N 3.8 0.0 0.0
03:33 3.5 -2.7 64 1021.3 2.2 N 3.8 0.0 0.0
03:34 3.5 -2.7 64 1021.2 2.2 N 3.8 0.0 0.0
03:35 3.5 -2.7 64 1021.4 2.2 NE 3.8 0.0 0.0
03:36 3.5 -2.7 64 1021.4 2.2 N 3.8 0.0 0.0
03:37 3.4 -2.8 64 1021.4 3.1 NW 3.8 0.0 0.0
03:39 3.4 -2.5 65 1021.5 3.1 N 3.8 0.0 0.0
03:40 3.4 -2.5 65 1021.4 2.2 N 3.8 0.0 0.0
03:41 3.4 -2.5 65 1021.4 3.8 N 3.8 0.0 0.0
03:42 3.4 -2.5 65 1021.3 2.2 N 3.8 0.0 0.0
03:43 3.4 -2.5 65 1021.3 2.2 NW 3.8 0.0 0.0
03:44 3.4 -2.5 65 1021.4 2.2 N 3.8 0.0 0.0
03:45 3.4 -2.5 65 1021.4 2.2 N 3.8 0.0 0.0
03:46 3.4 -2.5 65 1021.5 2.2 N 3.8 0.0 0.0
03:47 3.4 -2.5 65 1021.4 2.2 NE 3.8 0.0 0.0
03:48 3.4 -2.5 65 1021.4 2.2 N 3.8 0.0 0.0
03:49 3.4 -2.5 65 1021.4 2.2 N 3.8 0.0 0.0
03:50 3.4 -2.5 65 1021.3 2.2 N 3.8 0.0 0.0
03:51 3.4 -2.5 65 1021.4 2.2 N 3.8 0.0 0.0
03:52 3.4 -2.5 65 1021.4 1.6 N 2.2 0.0 0.0
03:53 3.4 -2.3 66 1021.4 2.2 N 2.2 0.0 0.0
03:54 3.4 -2.3 66 1021.3 1.6 N 2.2 0.0 0.0
03:55 3.4 -2.3 66 1021.3 2.2 N 2.2 0.0 0.0
03:56 3.4 -2.3 66 1021.4 3.1 NE 3.1 0.0 0.0
03:58 3.4 -2.3 66 1021.4 3.1 N 3.1 0.0 0.0
03:59 3.4 -2.3 66 1021.3 2.2 N 3.1 0.0 0.0
04:00 3.4 -2.3 66 1021.2 2.2 N 3.1 0.0 0.0
04:01 3.4 -2.3 66 1021.3 2.2 N 3.1 0.0 0.0
04:02 3.4 -2.3 66 1021.2 2.2 N 3.1 0.0 0.0
04:03 3.4 -2.3 66 1021.4 2.2 N 3.1 0.0 0.0
04:04 3.4 -2.3 66 1021.3 2.2 N 3.1 0.0 0.0
04:05 3.4 -2.3 66 1021.4 2.2 N 3.1 0.0 0.0
04:06 3.4 -2.3 66 1021.3 3.8 N 3.8 0.0 0.0
04:07 3.4 -2.3 66 1021.2 2.2 NW 3.8 0.0 0.0
04:08 3.4 -2.3 66 1021.3 2.2 N 3.8 0.0 0.0
04:09 3.4 -2.1 67 1021.4 3.1 NE 3.8 0.0 0.0
04:10 3.4 -2.1 67 1021.2 3.1 N 3.8 0.0 0.0
04:11 3.4 -2.1 67 1021.1 2.2 N 3.8 0.0 0.0
04:12 3.4 -2.1 67 1021.1 2.2 NE 3.8 0.0 0.0
04:13 3.4 -2.1 67 1021.2 2.2 N 3.8 0.0 0.0
04:14 3.4 -2.1 67 1021.3 1.6 N 3.8 0.0 0.0
04:15 3.4 -2.1 67 1021.2 1.6 NW 3.8 0.0 0.0
04:17 3.4 -2.1 67 1021.3 0.7 NW 3.1 0.0 0.0
04:18 3.4 -2.1 67 1021.3 1.6 NW 3.1 0.0 0.0
04:19 3.4 -2.1 67 1021.3 2.2 N 3.1 0.0 0.0
04:20 3.4 -2.1 67 1021.2 2.2 N 3.1 0.0 0.0
04:21 3.4 -2.1 67 1021.2 2.2 N 3.1 0.0 0.0
04:22 3.4 -2.1 67 1021.2 2.2 NW 3.1 0.0 0.0
04:23 3.4 -2.1 67 1021.2 2.2 NE 3.1 0.0 0.0
04:24 3.4 -2.1 67 1021.2 3.1 NE 3.1 0.0 0.0
04:25 3.4 -2.1 67 1021.2 2.2 N 3.1 0.0 0.0
04:26 3.4 -2.1 67 1021.2 2.2 E 3.1 0.0 0.0
04:27 3.4 -2.1 67 1021.2 3.1 N 3.1 0.0 0.0
04:28 3.4 -2.1 67 1021.3 2.2 N 3.1 0.0 0.0
04:29 3.4 -2.1 67 1021.1 2.2 N 3.1 0.0 0.0
04:30 3.4 -2.1 67 1021.2 2.2 N 3.1 0.0 0.0
04:31 3.4 -2.1 67 1021.2 2.2 N 3.1 0.0 0.0
04:32 3.4 -1.9 68 1021.3 3.1 NE 3.1 0.0 0.0
04:33 3.4 -1.9 68 1021.2 2.2 N 3.1 0.0 0.0
04:34 3.4 -2.1 67 1021.2 1.6 NW 3.1 0.0 0.0
04:35 3.3 -2.0 68 1021.1 2.2 N 3.1 0.0 0.0
04:37 3.4 -1.9 68 1021.1 2.2 N 3.1 0.0 0.0
04:38 3.4 -1.9 68 1021.3 3.1 N 3.1 0.0 0.0
04:39 3.4 -1.9 68 1021.4 2.2 N 3.1 0.0 0.0
04:40 3.4 -1.9 68 1021.2 2.2 N 3.1 0.0 0.0
04:41 3.4 -1.9 68 1021.3 1.6 NW 3.1 0.0 0.0
04:42 3.4 -1.9 68 1021.3 1.6 N 3.1 0.0 0.0
04:43 3.4 -1.9 68 1021.2 2.2 N 3.1 0.0 0.0
04:44 3.4 -1.9 68 1021.3 2.2 N 3.1 0.0 0.0
04:45 3.4 -1.9 68 1021.2 2.2 N 3.1 0.0 0.0
04:46 3.4 -1.9 68 1021.3 1.6 NE 3.1 0.0 0.0
04:47 3.4 -1.9 68 1021.3 2.2 N 3.1 0.0 0.0
04:48 3.4 -1.9 68 1021.3 2.2 NW 3.1 0.0 0.0
04:49 3.4 -1.9 68 1021.3 1.6 N 3.1 0.0 0.0
04:50 3.4 -1.9 68 1021.2 2.2 N 2.2 0.0 0.0
04:51 3.4 -1.7 69 1021.3 1.6 N 2.2 0.0 0.0
04:52 3.4 -1.7 69 1021.2 2.2 NE 2.2 0.0 0.0
04:54 3.4 -1.7 69 1021.3 2.2 N 2.2 0.0 0.0
04:55 3.4 -1.7 69 1021.2 2.2 N 2.2 0.0 0.0
04:56 3.4 -1.7 69 1021.2 1.6 N 2.2 0.0 0.0
04:57 3.4 -1.7 69 1021.2 1.6 N 2.2 0.0 0.0
04:58 3.4 -1.7 69 1021.2 1.6 NE 2.2 0.0 0.0
04:59 3.4 -1.7 69 1021.3 2.2 N 2.2 0.0 0.0
05:00 3.4 -1.7 69 1021.2 2.2 N 2.2 0.0 0.0
05:01 3.4 -1.7 69 1021.3 2.2 N 2.2 0.0 0.0
05:02 3.4 -1.7 69 1021.2 2.2 N 2.2 0.0 0.0
05:03 3.4 -1.7 69 1021.1 2.2 N 2.2 0.0 0.0
05:04 3.4 -1.7 69 1021.3 2.2 N 2.2 0.0 0.0
05:05 3.4 -1.7 69 1021.2 2.2 N 2.2 0.0 0.0
05:06 3.4 -1.7 69 1021.1 1.6 NE 2.2 0.0 0.0
05:07 3.4 -1.7 69 1021.1 1.6 NE 2.2 0.0 0.0
05:08 3.4 -1.7 69 1021.0 2.2 NNW 2.2 0.0 0.0
05:09 3.3 -1.8 69 1021.0 1.6 NE 2.2 0.0 0.0
05:11 3.3 -1.8 69 1021.0 1.6 N 2.2 0.0 0.0
05:12 3.3 -1.8 69 1021.2 1.6 N 2.2 0.0 0.0
05:13 3.3 -1.8 69 1021.1 1.6 N 2.2 0.0 0.0
05:14 3.3 -1.8 69 1021.0 1.6 NE 2.2 0.0 0.0
05:15 3.3 -1.6 70 1021.2 1.6 N 2.2 0.0 0.0
05:16 3.3 -1.6 70 1021.2 1.6 NE 2.2 0.0 0.0
05:17 3.3 -1.6 70 1021.3 1.6 N 2.2 0.0 0.0
05:18 3.2 -1.7 70 1021.4 1.6 N 2.2 0.0 0.0
05:19 3.3 -1.6 70 1021.2 1.6 N 1.6 0.0 0.0
05:20 3.2 -1.7 70 1021.1 1.6 N 1.6 0.0 0.0
05:21 3.2 -1.7 70 1021.1 1.6 N 1.6 0.0 0.0
05:22 3.2 -1.7 70 1021.2 1.6 N 1.6 0.0 0.0
05:23 3.2 -1.7 70 1021.2 1.6 NW 1.6 0.0 0.0
05:24 3.2 -1.7 70 1021.1 1.6 N 1.6 0.0 0.0
05:25 3.2 -1.7 70 1021.2 1.6 N 2.2 0.0 0.0
05:26 3.2 -1.7 70 1021.2 2.2 NW 2.2 0.0 0.0
05:28 3.2 -1.7 70 1021.0 2.2 N 2.2 0.0 0.0
05:29 3.2 -1.7 70 1021.3 1.6 NW 2.2 0.0 0.0
05:30 3.2 -1.7 70 1021.2 1.6 NW 2.2 0.0 0.0
05:31 3.2 -1.7 70 1021.3 2.2 N 2.2 0.0 0.0
05:32 3.2 -1.7 70 1021.2 3.1 N 3.1 0.0 0.0
05:33 3.2 -1.7 70 1021.2 2.2 N 3.1 0.0 0.0
05:34 3.2 -1.7 70 1021.1 2.2 N 3.1 0.0 0.0
05:35 3.2 -1.7 70 1021.1 2.2 N 3.1 0.0 0.0
05:36 3.2 -1.7 70 1021.1 2.2 N 3.1 0.0 0.0
05:37 3.2 -1.7 70 1021.1 2.2 NE 3.1 0.0 0.0
05:38 3.1 -1.8 70 1021.1 2.2 N 3.1 0.0 0.0
05:39 3.1 -1.8 70 1021.2 2.2 NE 3.1 0.0 0.0
05:40 3.1 -1.8 70 1021.2 2.2 N 3.1 0.0 0.0
05:41 3.1 -1.8 70 1021.0 2.2 N 3.1 0.0 0.0
05:42 3.1 -1.8 70 1021.2 2.2 NE 3.1 0.0 0.0
05:44 3.0 -1.9 70 1021.3 3.1 N 3.1 0.0 0.0
05:45 3.0 -1.9 70 1021.1 3.1 N 3.1 0.0 0.0
05:46 3.0 -1.9 70 1021.0 3.1 N 3.1 0.0 0.0
05:47 2.9 -2.0 70 1021.3 2.2 NE 3.1 0.0 0.0
05:48 2.9 -2.0 70 1021.2 2.2 NE 3.1 0.0 0.0
05:49 2.9 -2.0 70 1021.2 2.2 N 3.1 0.0 0.0
05:50 2.9 -2.0 70 1021.2 2.2 N 3.1 0.0 0.0
05:51 2.9 -1.8 71 1021.2 1.6 N 3.1 0.0 0.0
05:52 2.9 -1.8 71 1021.2 1.6 N 3.1 0.0 0.0
05:53 2.9 -1.8 71 1021.2 1.6 N 3.1 0.0 0.0
05:54 2.9 -1.8 71 1021.3 1.6 N 3.1 0.0 0.0
05:55 2.9 -1.8 71 1021.1 1.6 NW 3.1 0.0 0.0
05:56 2.8 -2.1 70 1021.3 1.6 NW 3.1 0.0 0.0
05:57 2.8 -1.9 71 1021.3 1.6 N 2.2 0.0 0.0
05:58 2.9 -1.8 71 1021.2 1.6 N 2.2 0.0 0.0
05:59 2.8 -1.9 71 1021.3 0.7 N 2.2 0.0 0.0
06:00 2.9 -1.8 71 1021.3 1.6 N 2.2 0.0 0.0
06:02 2.9 -1.8 71 1021.2 1.6 N 1.6 0.0 0.0
06:03 2.9 -1.8 71 1021.2 1.6 N 1.6 0.0 0.0
06:04 2.9 -1.8 71 1021.3 1.6 N 1.6 0.0 0.0
06:05 2.9 -1.8 71 1021.4 1.6 N 1.6 0.0 0.0
06:06 2.8 -1.9 71 1021.2 1.6 N 1.6 0.0 0.0
06:07 2.8 -1.9 71 1021.4 1.6 NW 1.6 0.0 0.0
06:08 2.8 -1.9 71 1021.4 1.6 NW 1.6 0.0 0.0
06:09 2.8 -1.9 71 1021.5 1.6 NW 1.6 0.0 0.0
06:10 2.8 -1.9 71 1021.5 1.6 NW 1.6 0.0 0.0
06:11 2.8 -1.9 71 1021.5 0.7 N 1.6 0.0 0.0
06:12 2.7 -2.0 71 1021.5 3.1 N 3.1 0.0 0.0
06:13 2.7 -2.0 71 1021.5 1.6 N 3.1 0.0 0.0
06:14 2.7 -2.0 71 1021.5 1.6 N 3.1 0.0 0.0
06:15 2.7 -2.0 71 1021.5 2.2 N 3.1 0.0 0.0
06:16 2.7 -2.0 71 1021.4 2.2 NE 3.1 0.0 0.0
06:17 2.7 -2.0 71 1021.4 2.2 N 3.1 0.0 0.0
06:19 2.7 -2.0 71 1021.5 3.8 N 3.8 0.0 0.0
06:20 2.7 -2.0 71 1021.4 3.8 N 3.8 0.0 0.0
06:21 2.7 -2.0 71 1021.6 3.1 N 3.8 0.0 0.0
06:22 2.7 -2.0 71 1021.6 2.2 NE 3.8 0.0 0.0
06:23 2.7 -2.0 71 1021.6 3.1 N 3.8 0.0 0.0
06:24 2.7 -2.0 71 1021.6 3.1 N 3.8 0.0 0.0
06:25 2.7 -2.0 71 1021.8 3.1 NE 3.8 0.0 0.0
06:26 2.7 -2.0 71 1021.5 3.1 NE 3.8 0.0 0.0
06:27 2.7 -2.0 71 1021.8 3.8 NE 3.8 0.0 0.0
06:28 2.7 -2.0 71 1021.5 3.1 NE 3.8 0.0 0.0
06:29 2.7 -2.0 71 1021.6 3.1 N 3.8 0.0 0.0
06:30 2.7 -2.0 71 1021.6 3.1 N 3.8 0.0 0.0
06:31 2.7 -2.0 71 1021.7 2.2 NE 3.8 0.0 0.0
06:32 2.7 -1.8 72 1021.7 3.1 NE 3.8 0.0 0.0
06:33 2.7 -1.8 72 1021.5 3.1 N 3.8 0.0 0.0
06:34 2.7 -2.0 71 1021.7 3.1 N 3.8 0.0 0.0
06:36 2.8 -1.7 72 1021.8 3.8 NE 3.8 0.0 0.0
06:37 2.8 -1.9 71 1021.8 3.8 N 3.8 0.0 0.0
06:38 2.8 -1.7 72 1021.8 2.2 N 3.8 0.0 0.0
06:39 2.8 -1.7 72 1021.7 2.2 NE 3.8 0.0 0.0
06:40 2.8 -1.7 72 1021.8 2.2 N 3.8 0.0 0.0
06:41 2.8 -1.7 72 1021.8 1.6 N 3.8 0.0 0.0
06:42 2.8 -1.9 71 1021.7 1.6 NW 3.8 0.0 0.0
06:43 2.9 -1.6 72 1021.8 1.6 N 3.8 0.0 0.0
06:44 2.9 -1.8 71 1021.6 1.6 N 3.8 0.0 0.0
06:45 2.9 -1.8 71 1021.8 1.6 NE 3.8 0.0 0.0
06:46 2.8 -1.7 72 1021.8 2.2 NE 3.8 0.0 0.0
06:47 2.8 -1.9 71 1021.6 2.2 N 3.8 0.0 0.0
06:48 2.8 -1.9 71 1021.9 3.1 N 3.1 0.0 0.0
06:49 2.8 -1.9 71 1021.9 2.2 N 3.1 0.0 0.0
06:50 2.8 -1.9 71 1021.9 3.1 NE 3.1 0.0 0.0
06:51 2.8 -1.9 71 1021.9 2.2 N 3.1 0.0 0.0
06:53 2.8 -1.9 71 1021.8 2.2 NE 3.1 0.0 0.0
06:54 2.8 -1.9 71 1021.8 1.6 N 3.1 0.0 0.0
06:55 2.8 -1.9 71 1021.9 2.2 N 3.1 0.0 0.0
06:56 2.8 -1.9 71 1021.9 2.2 N 3.1 0.0 0.0
06:57 2.8 -1.9 71 1021.8 1.6 N 3.1 0.0 0.0
06:58 2.8 -1.9 71 1021.8 1.6 N 3.1 0.0 0.0
06:59 2.8 -1.9 71 1021.8 2.2 NE 3.1 0.0 0.0
07:00 2.9 -1.8 71 1021.8 1.6 N 3.1 0.0 0.0
07:01 2.9 -1.8 71 1021.8 1.6 N 2.2 0.0 0.0
07:02 2.9 -1.8 71 1021.9 1.6 N 2.2 0.0 0.0
07:03 2.9 -1.8 71 1021.9 1.6 N 2.2 0.0 0.0
07:04 2.9 -1.8 71 1021.8 1.6 N 2.2 0.0 0.0
07:05 2.9 -1.8 71 1021.8 1.6 N 2.2 0.0 0.0
07:06 2.9 -1.8 71 1021.7 1.6 NW 2.2 0.0 0.0
07:07 2.9 -1.8 71 1021.9 1.6 NW 2.2 0.0 0.0
07:08 2.9 -1.8 71 1021.7 2.2 NW 2.2 0.0 0.0
07:10 2.9 -1.8 71 1021.7 2.2 N 2.2 0.0 0.0
07:11 2.9 -1.8 71 1021.8 1.6 NW 2.2 0.0 0.0
07:12 3.0 -1.7 71 1021.7 2.2 NW 2.2 0.0 0.0
07:13 3.0 -1.7 71 1021.8 1.6 NW 2.2 0.0 0.0
07:14 3.0 -1.7 71 1021.8 1.6 NW 2.2 0.0 0.0
07:15 3.0 -1.7 71 1021.8 1.6 NW 2.2 0.0 0.0
07:16 3.0 -1.7 71 1021.8 1.6 NW 2.2 0.0 0.0
07:17 3.0 -1.7 71 1021.8 1.6 NW 2.2 0.0 0.0
07:18 3.0 -1.7 71 1021.8 1.6 NW 2.2 0.0 0.0
07:19 3.0 -1.7 71 1021.8 2.2 NW 2.2 0.0 0.0
07:20 3.2 -1.5 71 1021.9 2.2 NW 2.2 0.0 0.0
07:21 3.1 -1.8 70 1021.8 1.6 NW 2.2 0.0 0.0
07:22 3.1 -1.6 71 1021.8 1.6 N 2.2 0.0 0.0
07:23 3.1 -1.8 70 1021.8 1.6 NW 2.2 0.0 0.0
07:24 3.1 -1.8 70 1021.9 1.6 NW 2.2 0.0 0.0
07:25 3.1 -1.8 70 1021.7 1.6 NW 2.2 0.0 0.0
07:26 3.1 -1.8 70 1021.8 2.2 N 2.2 0.0 0.0
07:28 3.1 -1.8 70 1021.7 1.6 N 2.2 0.0 0.0
07:29 3.1 -1.8 70 1021.7 1.6 N 2.2 0.0 0.0
07:30 3.2 -1.7 70 1021.8 1.6 NW 2.2 0.0 0.0
07:31 3.2 -1.7 70 1021.8 0.7 N 2.2 0.0 0.0
07:32 3.2 -1.7 70 1021.8 0.0 N 2.2 0.0 0.0
07:33 3.2 -1.7 70 1021.9 0.0 N 2.2 0.0 0.0
07:34 3.2 -1.7 70 1021.9 1.6 N 2.2 0.0 0.0
07:35 3.3 -1.6 70 1022.0 0.7 N 2.2 0.0 0.0
07:36 3.3 -1.6 70 1022.0 0.7 N 2.2 0.0 0.0
07:37 3.3 -1.6 70 1021.9 0.7 NW 1.6 0.0 0.0
07:38 3.3 -1.6 70 1022.0 1.6 W 1.6 0.0 0.0
07:39 3.3 -1.6 70 1021.9 1.6 NW 1.6 0.0 0.0
07:40 3.3 -1.6 70 1021.9 0.7 NW 1.6 0.0 0.0
07:41 3.3 -1.6 70 1021.8 1.6 NW 1.6 0.0 0.0
07:42 3.4 -1.5 70 1022.0 1.6 NW 1.6 0.0 0.0
07:43 3.4 -1.5 70 1021.9 1.6 NW 1.6 0.0 0.0
07:44 3.4 -1.5 70 1021.7 1.6 N 1.6 0.0 0.0
07:45 3.4 -1.5 70 1021.9 1.6 N 1.6 0.0 0.0
07:47 3.5 -1.4 70 1021.8 1.6 N 1.6 0.0 0.0
07:48 3.5 -1.4 70 1021.9 1.6 NW 1.6 0.0 0.0
07:49 3.5 -1.4 70 1021.9 1.6 N 1.6 0.0 0.0
07:50 3.6 -1.4 70 1021.8 1.6 NW 1.6 0.0 0.0
07:51 3.6 -1.4 70 1021.9 1.6 N 1.6 0.0 0.0
07:52 3.7 -1.3 70 1021.8 1.6 N 1.6 0.0 0.0
07:53 3.7 -1.3 70 1021.8 0.7 N 1.6 0.0 0.0
07:54 3.7 -1.3 70 1021.9 0.0 N 1.6 0.0 0.0
07:55 3.7 -1.3 70 1021.9 0.0 N 1.6 0.0 0.0
07:56 3.7 -1.3 70 1021.9 0.0 N 1.6 0.0 0.0
07:57 3.7 -1.3 70 1022.0 0.0 N 1.6 0.0 0.0
07:58 3.8 -1.2 70 1022.0 0.7 N 1.6 0.0 0.0
07:59 3.8 -1.4 69 1021.9 2.2 N 2.2 0.0 0.0
08:00 3.8 -1.4 69 1022.0 1.6 N 2.2 0.0 0.0
08:01 3.8 -1.4 69 1022.0 1.6 N 2.2 0.0 0.0
08:02 3.8 -1.4 69 1022.0 1.6 N 2.2 0.0 0.0
08:03 3.8 -1.4 69 1021.9 1.6 N 2.2 0.0 0.0
08:05 3.8 -1.4 69 1021.9 1.6 N 2.2 0.0 0.0
08:06 4.0 -1.2 69 1022.0 2.2 NE 2.2 0.0 0.0
08:07 4.1 -1.1 69 1022.0 1.6 N 2.2 0.0 0.0
08:08 4.1 -1.1 69 1021.9 2.2 NE 2.2 0.0 0.0
08:09 4.2 -1.0 69 1022.0 1.6 NW 2.2 0.0 0.0
08:10 4.2 -1.0 69 1022.0 3.1 N 3.1 0.0 0.0
08:11 4.2 -1.0 69 1022.0 3.8 N 3.8 0.0 0.0
08:12 4.3 -0.9 69 1022.0 3.1 N 3.8 0.0 0.0
08:13 4.3 -0.9 69 1021.9 2.2 N 3.8 0.0 0.0
08:14 4.4 -0.8 69 1021.8 1.6 N 3.8 0.0 0.0
08:15 4.4 -0.8 69 1021.9 1.6 NW 3.8 0.0 0.0
08:16 4.5 -0.7 69 1022.0 2.2 E 3.8 0.0 0.0
08:17 4.5 -0.7 69 1022.0 3.1 WNW 3.8 0.0 0.0
08:18 4.6 -0.6 69 1022.0 0.7 W 3.8 0.0 0.0
08:19 4.6 -0.6 69 1022.0 4.5 N 4.5 0.0 0.0
08:20 4.7 -0.5 69 1022.0 2.2 N 4.5 0.0 0.0
08:21 4.8 -0.4 69 1021.9 0.7 NW 4.5 0.0 0.0
08:23 4.9 -0.3 69 1022.0 4.5 NE 4.5 0.0 0.0
08:24 4.9 -0.3 69 1022.0 3.1 N 4.5 0.0 0.0
08:25 5.0 -0.4 68 1022.0 6.9 N 6.9 0.0 0.0
08:26 5.0 -0.4 68 1022.0 7.6 N 7.6 0.0 0.0
08:27 5.1 -0.3 68 1021.9 3.8 NE 7.6 0.0 0.0
08:28 5.1 -0.3 68 1022.0 3.8 NE 7.6 0.0 0.0
08:29 5.1 -0.3 68 1022.0 3.8 N 7.6 0.0 0.0
08:30 5.2 -0.2 68 1022.1 3.8 NNE 7.6 0.0 0.0
08:31 5.2 -0.2 68 1021.9 4.5 WNW 7.6 0.0 0.0
08:32 5.3 -0.1 68 1021.9 3.1 NE 7.6 0.0 0.0
08:33 5.3 -0.1 68 1022.0 6.0 N 7.6 0.0 0.0
08:34 5.3 -0.1 68 1022.0 3.8 NE 7.6 0.0 0.0
08:35 5.4 0.0 68 1022.1 3.1 E 7.6 0.0 0.0
08:36 5.4 -0.2 67 1022.1 3.8 NW 7.6 0.0 0.0
08:37 5.4 -0.2 67 1021.9 6.0 NE 6.0 0.0 0.0
08:38 5.5 -0.1 67 1022.2 4.5 NE 6.0 0.0 0.0
08:39 5.5 -0.1 67 1022.0 3.8 NE 6.0 0.0 0.0
08:40 5.5 -0.1 67 1022.1 3.8 N 6.0 0.0 0.0
08:42 5.6 -0.2 66 1022.2 5.4 NW 6.9 0.0 0.0
08:43 5.7 -0.2 66 1022.2 3.1 NW 6.9 0.0 0.0
08:44 5.7 -0.2 66 1022.2 6.9 N 6.9 0.0 0.0
08:45 5.8 -0.1 66 1022.2 6.0 NE 6.9 0.0 0.0
08:46 5.8 -0.1 66 1022.0 6.0 SW 6.9 0.0 0.0
08:47 5.8 -0.3 65 1022.1 5.4 N 6.9 0.0 0.0
08:48 5.9 -0.2 65 1022.2 5.4 NE 6.9 0.0 0.0
08:49 5.9 -0.2 65 1022.1 5.4 N 6.9 0.0 0.0
08:50 5.9 -0.4 64 1022.2 4.5 N 6.9 0.0 0.0
08:51 6.0 -0.3 64 1022.2 3.1 ENE 6.9 0.0 0.0
08:52 5.9 -0.4 64 1022.3 3.1 SE 6.9 0.0 0.0
08:53 6.0 -0.3 64 1022.1 3.8 NE 6.9 0.0 0.0
08:54 6.0 -0.3 64 1022.2 5.4 NW 6.9 0.0 0.0
08:55 6.1 -0.4 63 1022.2 5.4 NE 6.0 0.0 0.0
08:56 6.1 -0.4 63 1022.1 6.0 N 6.0 0.0 0.0
08:57 6.2 -0.3 63 1022.3 6.0 NE 6.0 0.0 0.0
08:58 6.2 -0.3 63 1022.2 9.2 N 9.2 0.0 0.0
09:00 6.3 -0.4 62 1022.3 5.4 NNE 9.2 0.0 0.0
09:01 6.3 -0.4 62 1022.2 5.4 NNE 9.2 0.0 0.0
09:02 6.3 -0.4 62 1022.3 5.4 NNE 9.2 0.0 0.0
09:03 6.3 -0.4 62 1022.1 5.4 NNE 9.2 0.0 0.0
09:04 6.3 -0.4 62 1022.2 5.4 NNE 9.2 0.0 0.0
09:05 6.3 -0.4 62 1022.2 5.4 NNE 9.2 0.0 0.0
09:06 6.5 -0.5 61 1022.3 3.8 NE 9.2 0.0 0.0
09:07 6.6 -0.6 60 1022.1 5.4 N 9.2 0.0 0.0
09:08 6.6 -0.6 60 1022.1 5.4 N 9.2 0.0 0.0
09:09 6.6 -0.6 60 1022.1 5.4 N 5.4 0.0 0.0
09:10 6.6 -0.8 59 1022.1 5.4 NW 5.4 0.0 0.0
09:11 6.6 -0.6 60 1022.3 1.6 N 5.4 0.0 0.0
09:12 6.7 -0.7 59 1022.2 3.8 E 5.4 0.0 0.0
09:13 6.7 -0.7 59 1022.2 5.4 NW 5.4 0.0 0.0
09:14 6.7 -0.7 59 1022.3 6.9 N 6.9 0.0 0.0
09:15 6.8 -0.6 59 1022.3 5.4 E 6.9 0.0 0.0
09:16 6.8 -0.6 59 1022.3 5.4 N 6.9 0.0 0.0
09:17 6.8 -0.9 58 1022.3 5.4 NE 6.9 0.0 0.0
09:19 6.9 -0.8 58 1022.1 4.5 N 6.9 0.0 0.0
09:20 6.9 -0.8 58 1022.2 4.5 NE 6.9 0.0 0.0
09:21 7.0 -0.7 58 1022.1 6.0 NE 6.9 0.0 0.0
09:22 7.0 -0.7 58 1022.2 6.0 NE 6.9 0.0 0.0
09:23 7.0 -0.9 57 1022.2 3.1 NE 6.9 0.0 0.0
09:24 7.1 -0.8 57 1022.2 4.5 E 6.0 0.0 0.0
09:25 7.1 -0.8 57 1022.1 8.3 N 8.3 0.0 0.0
09:26 7.1 -0.8 57 1022.2 6.0 N 8.3 0.0 0.0
09:27 7.2 -1.0 56 1022.1 6.0 NE 8.3 0.0 0.0
09:28 7.2 -1.0 56 1022.1 6.0 NE 8.3 0.0 0.0
09:29 7.2 -1.0 56 1022.2 4.5 NNW 8.3 0.0 0.0
09:30 7.3 -0.9 56 1022.1 6.0 N 8.3 0.0 0.0
09:31 7.3 -0.9 56 1022.1 5.4 NE 8.3 0.0 0.0
09:32 7.3 -0.9 56 1022.2 9.2 NE 9.2 0.0 0.0
09:33 7.4 -1.0 55 1022.2 4.5 N 9.2 0.0 0.0
09:34 7.4 -1.0 55 1022.3 3.1 NE 9.2 0.0 0.0
09:35 7.4 -1.0 55 1022.2 4.5 NE 9.2 0.0 0.0
09:36 7.4 -1.0 55 1022.2 4.5 NE 9.2 0.0 0.0
09:38 7.5 -1.2 54 1022.3 6.9 NE 9.8 0.0 0.0
09:39 7.6 -1.1 54 1022.3 7.6 NE 9.8 0.0 0.0
09:40 7.6 -1.1 54 1022.3 6.0 NW 9.8 0.0 0.0
09:41 7.6 -1.1 54 1022.3 7.6 NW 9.8 0.0 0.0
09:42 7.7 -1.0 54 1022.4 7.6 NE 9.8 0.0 0.0
09:43 7.7 -1.0 54 1022.4 5.4 NE 9.8 0.0 0.0
09:44 7.8 -1.2 53 1022.3 5.4 N 9.8 0.0 0.0
09:45 7.8 -1.2 53 1022.4 5.4 N 9.8 0.0 0.0
09:46 7.9 -1.1 53 1022.4 4.5 NE 9.8 0.0 0.0
09:47 7.9 -1.1 53 1022.3 6.9 E 7.6 0.0 0.0
09:48 8.0 -1.0 53 1022.4 6.0 NE 7.6 0.0 0.0
09:49 8.0 -1.0 53 1022.4 6.0 N 7.6 0.0 0.0
09:50 8.1 -1.2 52 1022.4 5.4 NE 7.6 0.0 0.0
09:51 8.1 -1.2 52 1022.3 5.4 N 7.6 0.0 0.0
09:52 8.2 -1.1 52 1022.2 6.9 SE 7.6 0.0 0.0
09:53 8.3 -1.0 52 1022.3 8.3 NE 8.3 0.0 0.0
09:54 8.3 -1.2 51 1022.3 6.9 NE 8.3 0.0 0.0
09:55 8.4 -1.1 51 1022.3 6.9 NE 8.3 0.0 0.0
09:56 8.4 -1.1 51 1022.2 6.0 N 8.3 0.0 0.0
09:57 8.5 -1.1 51 1022.2 3.1 W 8.3 0.0 0.0
09:58 8.6 -1.2 50 1022.3 6.9 S 8.3 0.0 0.0
10:00 8.8 -1.0 50 1022.4 9.2 N 9.2 0.0 0.0
10:01 8.8 -1.0 50 1022.3 9.2 N 9.2 0.0 0.0
10:02 9.0 -1.1 49 1022.4 3.8 SE 9.2 0.0 0.0
10:03 9.2 -1.0 49 1022.3 6.0 NE 9.2 0.0 0.0
10:04 9.3 -0.9 49 1022.3 6.9 NE 9.2 0.0 0.0
10:05 9.4 -0.8 49 1022.3 8.3 NE 9.2 0.0 0.0
10:06 9.5 -0.7 49 1022.2 8.3 NE 9.2 0.0 0.0
10:07 9.6 -0.9 48 1022.2 5.4 N 9.2 0.0 0.0
10:08 9.7 -0.8 48 1022.1 11.4 NNE 11.4 0.0 0.0
10:09 9.8 -1.0 47 1022.2 7.6 N 11.4 0.0 0.0
10:10 9.9 -0.6 48 1022.4 3.1 W 11.4 0.0 0.0
10:11 10.0 -0.5 48 1022.1 2.2 N 11.4 0.0 0.0
10:12 10.1 -0.4 48 1022.2 6.0 NE 11.4 0.0 0.0
10:13 10.3 -0.2 48 1022.3 6.0 N 11.4 0.0 0.0
10:14 10.3 -0.5 47 1022.2 4.5 N 11.4 0.0 0.0
10:15 10.4 -0.4 47 1022.3 3.8 NE 11.4 0.0 0.0
10:16 10.5 -0.3 47 1022.3 2.2 N 11.4 0.0 0.0
10:17 10.6 -0.2 47 1022.3 3.1 W 11.4 0.0 0.0
10:19 10.9 -0.3 46 1022.3 6.9 NE 6.9 0.0 0.0
10:20 11.0 -0.2 46 1022.4 5.4 NE 6.9 0.0 0.0
10:21 11.1 -0.4 45 1022.3 8.3 NE 8.3 0.0 0.0
10:22 11.2 -0.3 45 1022.3 4.5 SW 8.3 0.0 0.0
10:23 11.2 -0.3 45 1022.2 5.4 NE 8.3 0.0 0.0
10:24 11.3 -0.2 45 1022.1 5.4 NE 8.3 0.0 0.0
10:25 11.4 -0.4 44 1022.3 4.5 NE 8.3 0.0 0.0
10:26 11.4 -0.4 44 1022.2 6.9 N 8.3 0.0 0.0
10:27 11.6 -0.2 44 1022.2 3.8 NE 8.3 0.0 0.0
10:28 11.6 -0.2 44 1022.2 3.8 NE 8.3 0.0 0.0
10:29 11.7 -0.5 43 1022.1 6.9 ENE 8.3 0.0 0.0
10:30 11.7 -0.5 43 1022.2 6.9 NW 8.3 0.0 0.0
10:31 11.8 -0.7 42 1022.2 6.0 NE 8.3 0.0 0.0
10:32 11.8 -0.7 42 1022.1 6.9 NW 6.9 0.0 0.0
10:33 11.9 -0.6 42 1022.1 6.0 NE 6.9 0.0 0.0
10:34 11.9 -0.9 41 1022.0 4.5 N 6.9 0.0 0.0
10:35 12.0 -0.5 42 1022.2 4.5 NW 6.9 0.0 0.0
10:36 12.1 -0.4 42 1022.1 2.2 N 6.9 0.0 0.0
10:37 12.1 -0.8 41 1022.1 8.3 NE 8.3 0.0 0.0
10:39 12.3 -0.9 40 1022.2 6.0 NE 8.3 0.0 0.0
10:40 12.4 -0.8 40 1022.1 6.9 NW 8.3 0.0 0.0
10:41 12.4 -1.2 39 1022.2 4.5 NW 8.3 0.0 0.0
10:42 12.5 -1.1 39 1022.2 6.0 N 8.3 0.0 0.0
10:43 12.6 -1.0 39 1022.3 6.9 N 8.3 0.0 0.0
10:44 12.6 -1.0 39 1022.2 8.3 NE 8.3 0.0 0.0
10:45 12.7 -1.3 38 1022.3 6.0 N 8.3 0.0 0.0
10:46 12.7 -1.3 38 1022.3 4.5 NW 8.3 0.0 0.0
10:47 12.9 -1.1 38 1022.4 9.2 SW 9.2 0.0 0.0
10:48 12.9 -1.1 38 1022.4 9.2 SW 9.2 0.0 0.0
10:49 12.9 -1.8 36 1022.3 8.3 NE 9.2 0.0 0.0
10:50 12.9 -1.8 36 1022.4 6.0 NE 9.2 0.0 0.0
10:51 13.0 -2.1 35 1022.3 6.9 N 9.2 0.0 0.0
10:52 13.0 -2.1 35 1022.3 6.0 NE 9.2 0.0 0.0
10:53 13.1 -2.4 34 1022.1 9.2 E 9.2 0.0 0.0
10:54 13.1 -2.4 34 1022.3 5.4 N 9.2 0.0 0.0
10:55 13.1 -2.4 34 1022.3 5.4 WNW 9.2 0.0 0.0
10:56 13.1 -2.4 34 1022.1 4.5 NW 9.2 0.0 0.0
10:57 13.2 -2.3 34 1022.1 5.4 NE 9.2 0.0 0.0
10:58 13.3 -2.6 33 1022.2 4.5 N 9.2 0.0 0.0
11:00 13.3 -2.6 33 1022.1 6.9 N 9.2 0.0 0.0
11:01 13.3 -2.6 33 1022.1 6.9 N 9.2 0.0 0.0
11:02 13.3 -2.6 33 1022.2 6.9 N 9.2 0.0 0.0
11:03 13.3 -2.6 33 1022.1 6.9 N 6.9 0.0 0.0
11:04 13.3 -2.6 33 1022.2 6.9 N 6.9 0.0 0.0
11:05 13.3 -2.6 33 1022.0 6.9 N 6.9 0.0 0.0
11:06 13.6 -3.2 31 1022.3 8.3 N 8.3 0.0 0.0
11:07 13.7 -4.0 29 1022.2 9.8 NE 10.7 0.0 0.0
11:08 13.7 -4.0 29 1022.3 9.2 NNE 10.7 0.0 0.0
11:09 13.7 -4.0 29 1022.3 6.0 N 10.7 0.0 0.0
11:10 13.7 -4.0 29 1022.1 6.0 NW 10.7 0.0 0.0
11:11 13.8 -4.4 28 1022.2 10.7 NE 10.7 0.0 0.0
11:12 13.8 -4.9 27 1022.2 9.2 SE 10.7 0.0 0.0
11:13 13.8 -4.9 27 1022.1 12.1 NE 12.1 0.0 0.0
11:14 13.8 -5.4 26 1022.2 8.3 WNW 12.1 0.0 0.0
11:15 13.8 -4.9 27 1022.2 6.0 S 12.1 0.0 0.0
11:16 13.8 -4.9 27 1022.1 5.4 NE 12.1 0.0 0.0
11:17 13.8 -4.9 27 1022.1 5.4 N 12.1 0.0 0.0
11:18 13.9 -4.8 27 1022.2 6.0 N 12.1 0.0 0.0
11:20 14.1 -5.1 26 1022.1 3.1 NW 12.1 0.0 0.0
11:21 14.1 -5.1 26 1022.1 5.4 N 12.1 0.0 0.0
11:22 14.2 -5.0 26 1022.2 6.0 N 12.1 0.0 0.0
11:23 14.2 -5.0 26 1022.0 4.5 NW 12.1 0.0 0.0
11:24 14.3 -4.4 27 1022.2 5.4 N 8.3 0.0 0.0
11:25 14.3 -4.9 26 1022.3 11.4 N 11.4 0.0 0.0
11:26 14.4 -5.4 25 1022.2 8.3 NNE 11.4 0.0 0.0
11:27 14.4 -5.9 24 1022.1 9.2 SE 11.4 0.0 0.0
11:28 14.4 -5.9 24 1022.1 9.2 SE 11.4 0.0 0.0
11:29 14.4 -6.5 23 1022.0 5.4 NE 11.4 0.0 0.0
11:30 14.3 -6.5 23 1022.1 10.7 NE 11.4 0.0 0.0
11:31 14.4 -6.5 23 1022.1 5.4 W 11.4 0.0 0.0
11:32 14.4 -7.0 22 1022.1 7.6 N 11.4 0.0 0.0
11:33 14.4 -7.6 21 1022.1 9.8 N 11.4 0.0 0.0
11:34 14.5 -7.6 21 1022.0 10.7 E 11.4 0.0 0.0
11:35 14.5 -7.6 21 1021.9 9.8 NE 11.4 0.0 0.0
11:36 14.5 -8.2 20 1022.0 9.2 N 10.7 0.0 0.0
11:38 14.5 -9.5 18 1022.1 13.0 NNE 13.0 0.0 0.0
11:39 14.5 -9.5 18 1022.0 12.1 NE 13.0 0.0 0.0
11:40 14.5 -9.5 18 1022.0 10.7 SW 13.0 0.0 0.0
11:41 14.5 -9.5 18 1022.1 6.9 W 13.0 0.0 0.0
11:42 14.6 -9.4 18 1022.0 7.6 NE 13.0 0.0 0.0
11:43 14.6 -10.2 17 1022.1 10.7 NE 13.0 0.0 0.0
11:44 14.6 -10.2 17 1022.0 8.3 NE 13.0 0.0 0.0
11:45 14.6 -10.9 16 1022.0 13.0 W 13.0 0.0 0.0
11:46 14.6 -10.9 16 1022.1 14.5 WNW 14.5 0.0 0.0
11:47 14.6 -10.9 16 1022.1 9.8 SW 14.5 0.0 0.0
11:48 14.6 -10.9 16 1022.0 9.2 N 14.5 0.0 0.0
11:49 14.7 -10.9 16 1022.0 7.6 W 14.5 0.0 0.0
11:50 14.7 -10.9 16 1022.0 9.8 NE 14.5 0.0 0.0
11:51 14.7 -10.9 16 1022.0 10.7 E 14.5 0.0 0.0
11:52 14.7 -11.7 15 1022.1 10.7 E 14.5 0.0 0.0
11:53 14.6 -11.7 15 1022.0 6.0 N 14.5 0.0 0.0
11:54 14.6 -11.7 15 1022.1 6.0 N 14.5 0.0 0.0
11:55 14.6 -12.6 14 1021.9 10.7 NE 14.5 0.0 0.0
11:56 14.6 -12.6 14 1021.9 6.9 NE 14.5 0.0 0.0
11:58 14.7 -12.5 14 1022.0 8.3 NE 11.4 0.0 0.0
11:59 14.7 -12.5 14 1021.9 6.9 N 11.4 0.0 0.0
12:00 14.7 -12.5 14 1022.0 6.9 N 11.4 0.0 0.0
12:01 14.7 -12.5 14 1022.1 6.9 N 11.4 0.0 0.0
12:02 14.7 -12.5 14 1021.9 6.9 N 11.4 0.0 0.0
12:03 14.7 -12.5 14 1022.0 6.9 N 11.4 0.0 0.0
12:04 14.7 -12.5 14 1021.9 6.9 N 11.4 0.0 0.0
12:05 14.7 -12.5 14 1022.0 6.9 N 11.4 0.0 0.0
12:06 15.0 -12.3 14 1021.9 7.6 NW 11.4 0.0 0.0
12:07 15.0 -12.3 14 1022.0 10.7 NW 10.7 0.0 0.0
12:08 14.9 -12.4 14 1021.9 7.6 N 10.7 0.0 0.0
12:09 14.9 -13.3 13 1022.0 7.6 N 10.7 0.0 0.0
12:10 14.9 -13.3 13 1021.9 6.0 N 10.7 0.0 0.0
12:11 15.0 -12.3 14 1022.0 8.3 SW 10.7 0.0 0.0
12:12 15.0 -12.3 14 1022.1 8.3 E 10.7 0.0 0.0
12:13 15.0 -13.2 13 1022.1 9.8 N 10.7 0.0 0.0
12:14 15.0 -13.2 13 1022.0 9.8 NNE 10.7 0.0 0.0
12:15 15.0 -13.2 13 1022.0 7.6 ENE 10.7 0.0 0.0
12:16 15.0 -13.2 13 1022.1 9.8 N 10.7 0.0 0.0
12:17 15.0 -13.2 13 1022.1 12.1 NE 12.1 0.0 0.0
12:18 15.0 -13.2 13 1021.9 6.9 NW 12.1 0.0 0.0
12:19 15.0 -14.2 12 1022.0 9.2 N 12.1 0.0 0.0
12:20 15.0 -14.2 12 1022.0 12.1 NE 12.1 0.0 0.0
12:21 15.0 -14.2 12 1022.0 5.4 NE 13.0 0.0 0.0
12:22 15.0 -14.2 12 1021.9 13.0 NE 13.0 0.0 0.0
12:23 15.0 -14.2 12 1021.9 9.2 NE 13.0 0.0 0.0
12:24 15.0 -15.2 11 1021.9 12.1 NE 13.0 0.0 0.0
12:25 15.0 -14.2 12 1021.9 7.6 N 13.0 0.0 0.0
12:26 15.0 -13.2 13 1021.9 6.0 NNW 13.0 0.0 0.0
12:27 15.1 -13.1 13 1021.9 6.9 NW 13.0 0.0 0.0
12:28 15.1 -13.1 13 1021.8 9.2 NE 13.0 0.0 0.0
12:29 15.1 -15.1 11 1022.0 12.1 NW 15.2 0.0 0.0
12:30 15.1 -15.1 11 1021.9 9.2 N 15.2 0.0 0.0
12:31 15.1 -14.1 12 1021.9 13.0 NE 15.2 0.0 0.0
12:33 15.2 -14.0 12 1021.9 8.3 N 15.2 0.0 0.0
12:34 15.2 -14.0 12 1022.0 10.7 NW 15.2 0.0 0.0
12:35 15.2 -14.0 12 1021.9 9.8 N 15.2 0.0 0.0
12:36 15.1 -15.1 11 1021.9 8.3 NE 15.2 0.0 0.0
12:37 15.1 -15.1 11 1021.9 8.3 NW 15.2 0.0 0.0
12:38 15.1 -15.1 11 1022.0 9.8 W 15.2 0.0 0.0
12:39 15.1 -14.1 12 1021.9 4.5 N 13.0 0.0 0.0
12:40 15.1 -13.1 13 1021.9 3.8 N 13.0 0.0 0.0
12:41 15.2 -12.1 14 1022.0 9.2 SW 13.0 0.0 0.0
12:42 15.2 -12.1 14 1022.0 5.4 NE 10.7 0.0 0.0
12:43 15.2 -12.1 14 1021.9 9.2 N 10.7 0.0 0.0
12:44 15.3 -13.0 13 1021.9 9.8 NW 10.7 0.0 0.0
12:45 15.3 -13.0 13 1022.0 11.4 N 11.4 0.0 0.0
12:46 15.3 -13.0 13 1022.1 8.3 NE 11.4 0.0 0.0
12:47 15.3 -13.0 13 1021.9 9.2 WNW 11.4 0.0 0.0
12:48 15.3 -13.0 13 1022.0 6.9 NE 11.4 0.0 0.0
12:49 15.2 -13.0 13 1022.0 6.0 NW 11.4 0.0 0.0
12:50 15.2 -13.0 13 1021.9 8.3 NE 11.4 0.0 0.0
12:51 15.2 -13.0 13 1021.9 9.8 N 11.4 0.0 0.0
12:52 15.2 -12.1 14 1022.0 4.5 NW 11.4 0.0 0.0
12:54 15.4 -11.1 15 1021.9 6.0 NW 11.4 0.0 0.0
12:55 15.5 -11.9 14 1022.0 7.6 NE 10.7 0.0 0.0
12:56 15.5 -11.9 14 1021.9 6.0 NW 10.7 0.0 0.0
12:57 15.5 -11.9 14 1021.8 6.0 N 10.7 0.0 0.0
12:58 15.6 -11.8 14 1021.9 6.9 N 10.7 0.0 0.0
12:59 15.6 -11.8 14 1021.9 9.2 NE 10.7 0.0 0.0
13:00 15.6 -11.8 14 1021.9 9.2 NE 10.7 0.0 0.0
13:01 15.6 -11.8 14 1021.9 9.2 NE 10.7 0.0 0.0
13:02 15.6 -11.8 14 1021.9 9.2 NE 9.2 0.0 0.0
13:03 15.6 -11.8 14 1021.7 9.2 NE 9.2 0.0 0.0
13:04 15.6 -11.8 14 1021.9 9.2 NE 9.2 0.0 0.0
13:05 15.6 -11.8 14 1022.0 9.2 NE 9.2 0.0 0.0
13:06 15.7 -11.7 14 1022.1 7.6 NE 9.2 0.0 0.0
13:07 15.7 -11.7 14 1021.9 7.6 NE 9.2 0.0 0.0
13:08 15.7 -11.7 14 1022.0 5.4 NW 9.2 0.0 0.0
13:09 15.8 -10.8 15 1022.0 6.9 NW 9.2 0.0 0.0
13:10 15.9 -10.7 15 1021.9 9.2 SW 9.2 0.0 0.0
13:11 15.9 -10.7 15 1021.9 8.3 ENE 9.2 0.0 0.0
13:13 15.9 -11.6 14 1021.8 6.9 N 9.8 0.0 0.0
13:14 15.9 -11.6 14 1021.7 6.0 N 9.8 0.0 0.0
13:15 15.9 -10.7 15 1021.7 6.0 NE 9.8 0.0 0.0
13:16 16.0 -10.6 15 1021.8 6.0 WNW 9.8 0.0 0.0
13:17 16.0 -11.5 14 1021.8 11.4 NE 11.4 0.0 0.0
13:18 16.0 -11.5 14 1021.8 6.0 N 11.4 0.0 0.0
13:19 16.1 -11.4 14 1021.7 5.4 E 11.4 0.0 0.0
13:20 16.1 -11.4 14 1021.7 9.8 N 11.4 0.0 0.0
13:21 16.1 -11.4 14 1021.7 6.9 NE 11.4 0.0 0.0
13:22 16.1 -10.5 15 1021.8 9.2 N 11.4 0.0 0.0
13:23 16.1 -11.4 14 1021.7 9.8 N 11.4 0.0 0.0
13:24 16.1 -10.5 15 1021.7 5.4 N 11.4 0.0 0.0
13:25 16.2 -10.5 15 1021.6 7.6 N 11.4 0.0 0.0
13:26 16.2 -10.5 15 1021.7 4.5 NE 11.4 0.0 0.0
13:27 16.3 -10.4 15 1021.7 3.8 SW 11.4 0.0 0.0
13:28 16.3 -10.4 15 1021.7 6.9 N 9.8 0.0 0.0
13:29 16.3 -12.2 13 1021.7 13.0 NE 13.0 0.0 0.0
13:30 16.3 -12.2 13 1021.7 9.2 SW 13.0 0.0 0.0
13:31 16.3 -12.2 13 1021.6 9.8 NE 13.0 0.0 0.0
13:32 16.3 -11.2 14 1021.8 9.2 N 13.0 0.0 0.0
13:33 16.3 -12.2 13 1021.6 9.8 N 13.0 0.0 0.0
13:35 16.3 -11.2 14 1021.6 3.1 N 13.0 0.0 0.0
13:36 16.3 -11.2 14 1021.7 3.1 E 13.0 0.0 0.0
13:37 16.4 -11.2 14 1021.6 2.2 WNW 13.0 0.0 0.0
13:38 16.4 -10.3 15 1021.6 6.0 NW 13.0 0.0 0.0
13:39 16.5 -10.2 15 1021.7 4.5 NE 13.0 0.0 0.0
13:40 16.5 -10.2 15 1021.7 5.4 WNW 9.8 0.0 0.0
13:41 16.5 -10.2 15 1021.7 3.8 E 9.8 0.0 0.0
13:42 16.6 -10.1 15 1021.7 4.5 N 9.8 0.0 0.0
13:43 16.6 -10.1 15 1021.6 3.8 NW 7.6 0.0 0.0
13:44 16.6 -10.1 15 1021.6 3.8 NW 6.0 0.0 0.0
13:45 16.6 -10.1 15 1021.5 3.1 N 6.0 0.0 0.0
13:46 16.6 -10.1 15 1021.6 6.0 N 6.9 0.0 0.0
13:47 16.6 -10.1 15 1021.7 6.9 NE 6.9 0.0 0.0
13:48 16.7 -10.1 15 1021.5 5.4 NE 6.9 0.0 0.0
13:49 16.7 -10.1 15 1021.6 6.9 NE 6.9 0.0 0.0
13:50 16.8 -10.0 15 1021.6 3.8 NW 6.9 0.0 0.0
13:51 16.8 -10.0 15 1021.5 6.9 N 6.9 0.0 0.0
13:52 16.8 -10.8 14 1021.5 5.4 N 6.9 0.0 0.0
13:53 16.7 -11.8 13 1021.7 6.9 E 6.9 0.0 0.0
13:55 16.6 -11.0 14 1021.5 5.4 NE 6.9 0.0 0.0
13:56 16.6 -11.0 14 1021.7 7.6 NE 7.6 0.0 0.0
13:57 16.6 -11.0 14 1021.6 7.6 N 7.6 0.0 0.0
13:58 16.6 -11.0 14 1021.6 6.0 NW 7.6 0.0 0.0
13:59 16.7 -10.9 14 1021.7 8.3 NE 8.3 0.0 0.0
14:00 16.7 -10.9 14 1021.6 8.3 NE 8.3 0.0 0.0
14:01 16.7 -10.9 14 1021.7 8.3 NE 8.3 0.0 0.0
14:02 16.7 -10.9 14 1021.7 8.3 NE 8.3 0.0 0.0
14:03 16.7 -10.9 14 1021.6 8.3 NE 8.3 0.0 0.0
14:04 16.7 -10.9 14 1021.7 8.3 NE 8.3 0.0 0.0
14:05 16.7 -10.9 14 1021.7 8.3 NE 8.3 0.0 0.0
14:06 16.7 -11.8 13 1021.6 9.2 SE 9.2 0.0 0.0
14:07 16.7 -11.8 13 1021.6 6.0 NE 9.2 0.0 0.0
14:08 16.7 -11.8 13 1021.7 8.3 N 9.2 0.0 0.0
14:09 16.6 -11.9 13 1021.7 7.6 NE 9.2 0.0 0.0
14:10 16.6 -11.9 13 1021.6 8.3 N 9.2 0.0 0.0
14:11 16.6 -11.9 13 1021.6 9.2 SW 9.2 0.0 0.0
14:12 16.5 -12.0 13 1021.7 6.9 SW 9.2 0.0 0.0
14:13 16.5 -12.0 13 1021.6 6.0 WNW 9.2 0.0 0.0
14:14 16.4 -12.1 13 1021.7 5.4 NW 9.2 0.0 0.0
14:15 16.4 -12.1 13 1021.7 5.4 NW 9.2 0.0 0.0
14:16 16.4 -12.1 13 1021.7 4.5 N 9.2 0.0 0.0
14:17 16.3 -12.2 13 1021.6 9.8 N 9.8 0.0 0.0
14:18 16.3 -12.2 13 1021.7 4.5 N 9.8 0.0 0.0
14:20 16.3 -11.2 14 1021.8 8.3 NE 9.8 0.0 0.0
14:21 16.3 -11.2 14 1021.8 8.3 N 9.8 0.0 0.0
14:22 16.3 -11.2 14 1021.9 6.0 N 9.8 0.0 0.0
14:23 16.4 -10.3 15 1021.8 7.6 NNE 9.8 0.0 0.0
14:24 16.4 -10.3 15 1021.7 3.1 N 9.8 0.0 0.0
14:25 16.4 -10.3 15 1021.7 3.1 NW 9.8 0.0 0.0
14:26 16.5 -10.2 15 1021.7 4.5 N 9.8 0.0 0.0
14:27 16.6 1.1 35 1021.7 4.5 N 8.3 0.0 0.0
14:28 16.6 1.1 35 1021.7 4.5 N 8.3 0.0 0.0
14:29 16.6 1.1 35 1021.8 4.5 N 8.3 0.0 0.0
14:30 16.7 0.8 34 1021.6 5.4 N 8.3 0.0 0.0
14:31 16.7 0.8 34 1021.8 3.1 N 8.3 0.0 0.0
14:32 16.8 0.9 34 1021.6 3.1 NE 7.6 0.0 0.0
14:33 16.9 0.9 34 1021.6 5.4 N 7.6 0.0 0.0
14:34 16.9 0.5 33 1021.8 8.3 NE 8.3 0.0 0.0
14:35 17.0 0.6 33 1021.6 3.8 N 8.3 0.0 0.0
14:36 16.9 0.1 32 1021.6 6.9 NE 8.3 0.0 0.0
14:37 16.9 -0.3 31 1021.5 3.1 N 8.3 0.0 0.0
14:38 16.5 -1.1 30 1021.8 2.2 SW 8.3 0.0 0.0
14:39 16.1 -1.0 31 1021.4 6.0 SW 8.3 0.0 0.0
14:41 15.7 -1.8 30 1021.5 9.2 WSW 9.2 0.0 0.0
14:42 15.6 -1.9 30 1021.6 4.5 NW 9.2 0.0 0.0
14:43 15.3 -2.2 30 1021.5 9.8 NE 9.8 0.0 0.0
14:44 15.3 -1.3 32 1021.7 6.0 N 9.8 0.0 0.0
14:45 15.2 -2.3 30 1021.4 3.1 W 9.8 0.0 0.0
14:46 15.2 -2.3 30 1021.6 3.8 SW 9.8 0.0 0.0
14:47 15.1 -1.5 32 1021.6 6.0 N 9.8 0.0 0.0
14:48 15.1 -1.9 31 1021.7 6.0 N 9.8 0.0 0.0
14:49 15.1 -1.9 31 1021.7 6.0 N 9.8 0.0 0.0
14:50 15.0 -2.4 30 1021.5 3.8 S 9.8 0.0 0.0
14:51 15.0 -1.1 33 1021.5 3.1 N 9.8 0.0 0.0
14:52 15.0 -0.7 34 1021.6 4.5 N 9.8 0.0 0.0
14:53 15.0 -1.1 33 1021.6 6.9 N 9.8 0.0 0.0
14:54 15.0 -1.1 33 1021.5 6.9 NE 9.8 0.0 0.0
14:55 15.0 -0.7 34 1021.5 3.8 SW 6.9 0.0 0.0
14:56 15.0 -0.7 34 1021.7 5.4 N 6.9 0.0 0.0
14:57 15.0 -2.4 30 1021.5 5.4 S 6.9 0.0 0.0
14:58 14.9 -2.5 30 1021.6 11.4 N 11.4 0.0 0.0
14:59 14.9 -1.2 33 1021.5 6.9 N 11.4 0.0 0.0
15:01 14.9 -1.2 33 1021.6 7.6 NE 11.4 0.0 0.0
15:02 14.9 -1.2 33 1021.6 3.8 E 11.4 0.0 0.0
15:03 14.9 0.0 36 1021.7 3.1 NW 11.4 0.0 0.0
15:04 15.0 -0.7 34 1021.6 5.4 NW 11.4 0.0 0.0
15:05 14.9 -0.4 35 1021.7 4.5 SW 11.4 0.0 0.0
15:06 15.0 0.4 37 1021.5 4.5 NW 11.4 0.0 0.0
15:07 14.9 -0.4 35 1021.6 3.1 N 11.4 0.0 0.0
15:08 14.9 0.0 36 1021.7 3.1 E 7.6 0.0 0.0
15:09 14.9 0.0 36 1021.7 3.1 E 7.6 0.0 0.0
15:10 14.9 -0.4 35 1021.6 3.1 NW 7.6 0.0 0.0
15:11 14.9 -1.2 33 1021.7 6.9 NE 7.6 0.0 0.0
15:12 14.8 -0.9 34 1021.6 6.0 N 6.9 0.0 0.0
15:13 14.8 -0.5 35 1021.8 3.8 W 6.9 0.0 0.0
15:14 14.7 -0.2 36 1021.8 4.5 S 6.9 0.0 0.0
15:15 14.7 -0.2 36 1021.5 3.8 N 6.9 0.0 0.0
15:16 14.7 -0.2 36 1021.7 8.3 NE 8.3 0.0 0.0
15:17 14.6 -1.1 34 1021.8 4.5 N 8.3 0.0 0.0
15:18 14.5 0.4 38 1021.7 4.5 W 8.3 0.0 0.0
15:19 14.5 0.7 39 1021.7 4.5 NW 8.3 0.0 0.0
15:20 14.5 0.4 38 1021.7 5.4 E 8.3 0.0 0.0
15:21 14.5 0.7 39 1021.8 3.8 N 8.3 0.0 0.0
15:22 14.4 -0.5 36 1021.7 5.4 NE 8.3 0.0 0.0
15:23 14.4 -0.5 36 1021.7 9.8 NW 9.8 0.0 0.0
15:25 14.2 -0.3 37 1021.7 3.1 E 9.8 0.0 0.0
15:26 14.2 -0.7 36 1021.8 3.1 E 9.8 0.0 0.0
15:27 14.1 -0.7 36 1021.8 4.5 E 9.8 0.0 0.0
15:28 14.1 -0.7 36 1021.6 5.4 WNW 9.8 0.0 0.0
15:29 14.1 0.4 39 1021.7 3.1 E 9.8 0.0 0.0
15:30 14.1 -0.4 37 1021.6 6.9 N 9.8 0.0 0.0
15:31 14.1 -0.7 36 1021.7 3.8 NW 9.8 0.0 0.0
15:32 14.1 -1.1 35 1021.5 6.9 N 9.8 0.0 0.0
15:33 14.0 -0.5 37 1021.6 6.0 N 6.9 0.0 0.0
15:34 14.1 0.4 39 1021.6 3.8 E 6.9 0.0 0.0
15:35 14.1 0.7 40 1021.7 3.8 N 6.9 0.0 0.0
15:36 14.1 0.7 40 1021.7 3.8 N 6.9 0.0 0.0
15:37 14.1 0.0 38 1021.7 6.0 NE 6.9 0.0 0.0
15:38 14.1 -0.7 36 1021.7 6.9 SW 10.7 0.0 0.0
15:39 14.1 -1.1 35 1021.6 5.4 NW 10.7 0.0 0.0
15:40 14.1 -1.1 35 1021.5 7.6 N 10.7 0.0 0.0
15:41 14.0 -1.6 34 1021.5 4.5 N 10.7 0.0 0.0
15:42 14.0 -1.2 35 1021.7 3.8 N 10.7 0.0 0.0
15:43 14.0 -1.2 35 1021.5 3.8 NE 10.7 0.0 0.0
15:44 14.0 -0.5 37 1021.5 3.1 NW 10.7 0.0 0.0
15:46 14.0 0.3 39 1021.6 3.8 NW 10.7 0.0 0.0
15:47 14.0 -1.2 35 1021.5 4.5 W 10.7 0.0 0.0
15:48 14.0 -0.8 36 1021.5 5.4 NE 7.6 0.0 0.0
15:49 14.0 -0.1 38 1021.5 5.4 N 7.6 0.0 0.0
15:50 14.0 -0.5 37 1021.6 6.0 ENE 6.0 0.0 0.0
15:51 14.1 0.4 39 1021.5 3.1 N 6.9 0.0 0.0
15:52 14.2 0.1 38 1021.6 4.5 E 6.9 0.0 0.0
15:53 14.2 -1.0 35 1021.5 4.5 E 6.9 0.0 0.0
15:54 14.2 -1.0 35 1021.5 3.8 W 6.9 0.0 0.0
15:55 14.1 0.0 38 1021.4 6.9 SE 6.9 0.0 0.0
15:56 14.1 -1.1 35 1021.4 6.0 NW 6.9 0.0 0.0
15:57 14.0 -2.0 33 1021.4 5.4 N 6.9 0.0 0.0
15:58 14.0 -2.0 33 1021.5 6.9 E 6.9 0.0 0.0
15:59 13.9 -1.3 35 1021.5 3.1 N 6.9 0.0 0.0
16:00 14.0 -1.2 35 1021.4 6.0 NE 6.9 0.0 0.0
16:01 14.0 -1.2 35 1021.4 6.0 NE 6.9 0.0 0.0
16:02 13.9 -0.9 36 1021.5 3.1 NE 6.9 0.0 0.0
16:03 13.8 -1.4 35 1021.4 3.8 NW 6.9 0.0 0.0
16:04 13.8 -1.4 35 1021.5 4.5 W 6.9 0.0 0.0
16:06 13.8 -0.6 37 1021.4 4.5 N 6.9 0.0 0.0
16:07 13.9 -0.5 37 1021.4 3.1 N 6.9 0.0 0.0
16:08 13.9 -0.2 38 1021.4 1.6 NNW 6.9 0.0 0.0
16:09 13.9 -0.2 38 1021.6 3.8 N 6.0 0.0 0.0
16:10 13.9 0.5 40 1021.5 3.8 N 6.0 0.0 0.0
16:11 13.9 -0.5 37 1021.4 3.8 NW 6.0 0.0 0.0
16:12 14.0 -0.1 38 1021.4 3.1 N 6.0 0.0 0.0
16:13 14.0 0.3 39 1021.5 2.2 NE 6.0 0.0 0.0
16:14 13.9 -0.9 36 1021.4 6.9 N 6.9 0.0 0.0
16:15 13.9 -1.3 35 1021.5 7.6 N 7.6 0.0 0.0
16:16 13.9 -0.9 36 1021.6 6.9 NE 7.6 0.0 0.0
16:17 13.9 -1.7 34 1021.5 5.4 NE 7.6 0.0 0.0
16:18 13.9 -1.3 35 1021.5 6.0 N 7.6 0.0 0.0
16:19 13.9 -1.3 35 1021.4 6.0 N 7.6 0.0 0.0
16:20 13.8 -1.0 36 1021.6 5.4 N 7.6 0.0 0.0
16:21 13.8 -0.6 37 1021.5 6.9 NW 7.6 0.0 0.0
16:22 13.8 -0.6 37 1021.5 6.9 W 7.6 0.0 0.0
16:23 13.8 -0.6 37 1021.6 6.9 W 7.6 0.0 0.0
16:24 13.8 -0.3 38 1021.6 4.5 N 7.6 0.0 0.0
16:26 13.8 -0.6 37 1021.5 4.5 NE 6.9 0.0 0.0
16:27 13.8 -1.0 36 1021.5 5.4 N 6.9 0.0 0.0
16:28 13.8 -1.0 36 1021.5 5.4 N 6.9 0.0 0.0
16:29 13.8 -0.6 37 1021.5 6.0 N 6.9 0.0 0.0
16:30 13.8 -0.6 37 1021.4 6.0 N 6.9 0.0 0.0
16:31 13.8 -1.0 36 1021.4 4.5 NE 6.9 0.0 0.0
16:32 13.8 -0.6 37 1021.6 3.1 NW 6.9 0.0 0.0
16:33 13.8 -0.6 37 1021.5 3.1 NW 6.0 0.0 0.0
16:34 13.8 0.1 39 1021.4 2.2 N 6.0 0.0 0.0
16:35 13.8 0.4 40 1021.6 3.1 N 6.0 0.0 0.0
16:36 13.9 0.5 40 1021.5 2.2 NE 6.0 0.0 0.0
16:37 13.9 -0.2 38 1021.6 4.5 NE 6.0 0.0 0.0
16:38 13.9 -0.2 38 1021.5 3.1 NW 6.0 0.0 0.0
16:39 13.8 0.4 40 1021.5 5.4 N 6.0 0.0 0.0
16:40 13.8 -0.3 38 1021.6 3.8 N 6.0 0.0 0.0
16:41 13.8 -0.3 38 1021.5 2.2 N 6.0 0.0 0.0
16:42 13.8 0.1 39 1021.6 6.0 N 6.0 0.0 0.0
16:43 13.8 0.1 39 1021.5 6.0 N 6.0 0.0 0.0
16:44 13.7 0.3 40 1021.5 3.1 N 6.0 0.0 0.0
16:45 13.7 0.0 39 1021.4 3.8 N 6.0 0.0 0.0
16:47 13.8 -1.4 35 1021.4 6.0 N 6.0 0.0 0.0
16:48 13.8 -0.6 37 1021.4 7.6 E 7.6 0.0 0.0
16:49 13.8 -1.8 34 1021.4 6.9 E 7.6 0.0 0.0
16:50 13.8 -1.8 34 1021.5 5.4 NE 7.6 0.0 0.0
16:51 13.7 -2.7 32 1021.5 5.4 N 7.6 0.0 0.0
16:52 13.7 -1.9 34 1021.4 3.8 N 7.6 0.0 0.0
16:53 13.7 -1.1 36 1021.4 5.4 NE 7.6 0.0 0.0
16:54 13.7 -1.1 36 1021.4 5.4 NW 7.6 0.0 0.0
16:55 13.7 -1.5 35 1021.6 3.8 NE 7.6 0.0 0.0
16:56 13.7 -1.1 36 1021.6 3.8 E 7.6 0.0 0.0
16:57 13.6 -0.8 37 1021.4 3.1 S 7.6 0.0 0.0
16:58 13.6 -0.4 38 1021.4 5.4 NW 7.6 0.0 0.0
16:59 13.5 -0.9 37 1021.5 4.5 NE 7.6 0.0 0.0
17:00 13.5 -1.3 36 1021.5 4.5 E 5.4 0.0 0.0
17:01 13.5 -1.3 36 1021.4 4.5 E 5.4 0.0 0.0
17:02 13.4 -1.4 36 1021.6 4.5 W 5.4 0.0 0.0
17:03 13.4 -1.0 37 1021.5 3.1 N 5.4 0.0 0.0
17:04 13.4 -0.6 38 1021.6 2.2 NE 5.4 0.0 0.0
17:05 13.4 -0.6 38 1021.5 5.4 NE 5.4 0.0 0.0
17:06 13.4 -0.6 38 1021.7 3.8 N 5.4 0.0 0.0
17:07 13.5 -0.5 38 1021.4 3.1 N 5.4 0.0 0.0
17:08 13.5 -0.2 39 1021.5 3.8 NE 5.4 0.0 0.0
17:09 13.6 -0.4 38 1021.5 3.8 NE 5.4 0.0 0.0
17:10 13.6 -1.2 36 1021.5 3.8 NE 5.4 0.0 0.0
17:11 13.5 -1.7 35 1021.7 4.5 NE 5.4 0.0 0.0
17:12 13.5 -0.5 38 1021.7 3.8 NE 5.4 0.0 0.0
17:13 13.5 -0.9 37 1021.7 2.2 NNE 5.4 0.0 0.0
17:14 13.5 -1.3 36 1021.7 2.2 N 5.4 0.0 0.0
17:15 13.4 -0.6 38 1021.6 3.8 NE 5.4 0.0 0.0
17:16 13.4 -0.6 38 1021.5 3.8 NE 4.5 0.0 0.0
17:17 13.4 -0.6 38 1021.4 3.8 NE 4.5 0.0 0.0
17:18 13.4 -0.6 38 1021.4 3.8 NE 4.5 0.0 0.0
17:19 13.4 -0.6 38 1021.6 3.8 NE 4.5 0.0 0.0
17:20 13.4 -0.6 38 1021.7 3.8 NE 4.5 0.0 0.0
17:21 13.4 -0.6 38 1021.6 3.8 NE 4.5 0.0 0.0
17:22 13.4 -0.6 38 1021.5 3.8 NE 3.8 0.0 0.0
17:23 13.4 -0.6 38 1021.6 3.8 NE 3.8 0.0 0.0
17:24 13.4 -0.6 38 1021.6 3.8 NE 3.8 0.0 0.0
17:25 13.4 -0.6 38 1021.7 3.8 NE 3.8 0.0 0.0
17:27 13.4 0.4 41 1021.6 2.2 N 3.8 0.0 0.0
17:37 16.4 7.1 54 1035.3 3.1 N 3.1 0.0 0.0
17:38 16.4 7.1 54 1035.3 3.1 N 3.1 0.0 0.0
17:39 14.7 -0.6 35 1035.1 1.6 N 3.1 0.0 0.0
17:40 14.7 -0.6 35 1035.1 1.6 N 3.1 0.0 0.0
17:41 14.2 -0.3 37 1035.1 2.2 NE 3.1 0.0 0.0
17:43 13.7 0.3 40 1035.2 1.6 N 3.1 0.0 0.0
17:44 13.5 0.2 40 1035.0 2.2 N 3.1 0.0 0.0
17:45 13.3 0.0 40 1035.0 1.6 N 3.1 0.0 0.0
17:47 13.2 -0.1 40 1035.2 2.2 N 3.1 0.0 0.0
17:48 13.0 0.1 41 1021.0 2.2 NW 3.1 0.0 0.0
17:49 12.9 0.0 41 1021.1 2.2 NW 3.1 0.0 0.0
17:50 12.8 -0.1 41 1021.2 2.2 NW 3.1 0.0 0.0
17:51 12.8 -0.1 41 1021.1 2.2 N 3.1 0.0 0.0
17:52 12.7 -0.2 41 1021.1 2.2 NNE 3.1 0.0 0.0
17:53 12.6 0.0 42 1021.1 2.2 N 3.1 0.0 0.0
17:54 12.6 0.0 42 1021.1 2.2 N 3.1 0.0 0.0
17:55 12.5 -0.1 42 1021.1 2.2 NE 3.1 0.0 0.0
17:56 12.5 -0.1 42 1021.0 2.2 N 3.1 0.0 0.0
17:57 12.4 0.8 45 1021.0 2.2 N 2.2 0.0 0.0
17:58 12.4 0.8 45 1020.9 1.6 N 2.2 0.0 0.0
17:59 12.4 1.1 46 1021.2 3.1 N 3.1 0.0 0.0
18:00 12.3 1.0 46 1021.1 3.1 NE 3.1 0.0 0.0
18:01 12.3 1.0 46 1021.1 3.1 NE 3.1 0.0 0.0
18:02 12.3 1.3 47 1021.0 3.1 NE 3.1 0.0 0.0
18:03 12.2 1.2 47 1021.0 2.2 NE 3.1 0.0 0.0
18:04 12.1 1.1 47 1021.2 2.2 NE 3.1 0.0 0.0
18:05 12.1 1.4 48 1021.1 2.2 N 3.1 0.0 0.0
18:07 12.0 1.3 48 1021.1 0.7 N 3.1 0.0 0.0
18:08 12.0 1.3 48 1021.1 2.2 N 3.1 0.0 0.0
18:09 12.0 1.3 48 1021.0 2.2 N 3.1 0.0 0.0
18:10 12.0 1.3 48 1021.2 1.6 N 3.1 0.0 0.0
18:11 12.0 1.3 48 1021.3 1.6 N 3.1 0.0 0.0
18:12 12.0 1.3 48 1021.1 2.2 N 3.1 0.0 0.0
18:13 12.0 1.3 48 1021.1 2.2 N 2.2 0.0 0.0
18:14 12.0 1.3 48 1021.2 2.2 N 2.2 0.0 0.0
18:15 12.0 1.3 48 1021.0 2.2 N 2.2 0.0 0.0
18:16 12.0 1.3 48 1021.2 3.1 N 3.1 0.0 0.0
18:17 12.0 1.3 48 1021.0 3.1 N 3.1 0.0 0.0
18:18 12.0 1.0 47 1021.1 2.2 N 3.1 0.0 0.0
18:19 12.0 1.0 47 1021.2 2.2 NE 3.1 0.0 0.0
18:20 12.0 1.0 47 1021.0 1.6 NE 3.1 0.0 0.0
18:21 12.0 1.0 47 1021.0 1.6 N 3.1 0.0 0.0
18:22 12.0 1.0 47 1021.0 2.2 NE 3.1 0.0 0.0
18:23 12.0 1.0 47 1021.0 2.2 NNE 3.1 0.0 0.0
18:24 12.0 1.0 47 1020.8 2.2 NNE 3.1 0.0 0.0
18:25 12.0 0.7 46 1021.2 3.1 NE 3.1 0.0 0.0
18:27 12.0 0.7 46 1021.1 1.6 NE 3.1 0.0 0.0
18:28 12.0 0.7 46 1021.1 2.2 NE 3.1 0.0 0.0
18:29 12.0 0.7 46 1021.1 2.2 N 3.1 0.0 0.0
18:30 12.0 0.7 46 1021.0 3.1 NE 3.1 0.0 0.0
18:31 11.9 0.7 46 1021.3 3.1 N 3.1 0.0 0.0
18:32 11.9 0.7 46 1021.2 2.2 NE 3.1 0.0 0.0
18:33 11.9 0.7 46 1021.2 2.2 NE 3.1 0.0 0.0
18:34 11.8 0.6 46 1021.0 1.6 N 3.1 0.0 0.0
18:35 11.8 0.6 46 1021.1 0.7 N 3.1 0.0 0.0
18:36 11.7 0.5 46 1020.8 0.0 N 3.1 0.0 0.0
18:37 11.6 0.4 46 1020.8 0.7 N 3.1 0.0 0.0
18:38 11.6 0.4 46 1020.9 0.7 N 3.1 0.0 0.0
18:39 11.5 0.6 47 1020.9 0.7 N 3.1 0.0 0.0
18:40 11.4 0.5 47 1021.2 0.7 NW 3.1 0.0 0.0
18:41 11.3 0.4 47 1021.2 0.0 NW 3.1 0.0 0.0
18:42 11.2 0.3 47 1021.2 0.0 NW 2.2 0.0 0.0
18:43 11.0 0.4 48 1021.1 1.6 NW 2.2 0.0 0.0
18:44 10.9 0.6 49 1021.0 1.6 NW 1.6 0.0 0.0
18:45 10.8 0.5 49 1021.1 1.6 NW 1.6 0.0 0.0
18:47 10.7 0.7 50 1020.8 1.6 NW 1.6 0.0 0.0
18:48 10.5 0.5 50 1021.0 2.2 NW 2.2 0.0 0.0
18:49 10.4 0.4 50 1020.9 1.6 NW 2.2 0.0 0.0
18:50 10.4 0.4 50 1020.9 1.6 NW 2.2 0.0 0.0
18:51 10.3 0.3 50 1021.0 1.6 NW 2.2 0.0 0.0
18:52 10.1 0.4 51 1020.9 1.6 NW 2.2 0.0 0.0
18:53 10.1 0.4 51 1020.9 1.6 NW 2.2 0.0 0.0
18:54 10.1 0.4 51 1021.0 1.6 NW 2.2 0.0 0.0
18:55 10.0 0.3 51 1020.9 0.7 NW 2.2 0.0 0.0
18:56 9.9 0.2 51 1021.0 0.7 NW 2.2 0.0 0.0
18:57 9.8 0.1 51 1021.0 1.6 NW 2.2 0.0 0.0
18:58 9.8 0.1 51 1021.1 1.6 NW 2.2 0.0 0.0
18:59 9.6 0.0 51 1020.9 0.7 NW 1.6 0.0 0.0
19:00 9.5 0.1 52 1021.1 0.0 NW 1.6 0.0 0.0
19:01 9.5 0.1 52 1021.2 0.0 NW 1.6 0.0 0.0
19:02 9.4 0.0 52 1021.3 1.6 NW 1.6 0.0 0.0
19:03 9.3 0.0 52 1021.1 0.7 NW 1.6 0.0 0.0
19:04 9.2 0.1 53 1021.2 0.7 NW 1.6 0.0 0.0
19:06 9.1 0.0 53 1021.2 1.6 NW 1.6 0.0 0.0
19:07 9.0 -0.1 53 1021.1 1.6 NW 1.6 0.0 0.0
19:08 8.9 -0.2 53 1021.3 2.2 NW 2.2 0.0 0.0
19:09 8.8 -0.3 53 1021.1 2.2 NW 2.2 0.0 0.0
19:10 8.8 -0.3 53 1021.2 1.6 NW 2.2 0.0 0.0
19:11 8.7 -0.3 53 1021.0 0.7 NW 2.2 0.0 0.0
19:12 8.7 -0.3 53 1021.2 1.6 NW 2.2 0.0 0.0
19:13 8.7 -0.3 53 1021.2 1.6 NW 2.2 0.0 0.0
19:14 8.6 -0.4 53 1021.2 0.0 NW 2.2 0.0 0.0
19:15 8.5 -0.3 54 1021.2 1.6 NW 2.2 0.0 0.0
19:16 8.5 -0.3 54 1021.3 1.6 NW 2.2 0.0 0.0
19:17 8.5 -0.3 54 1021.1 1.6 NW 2.2 0.0 0.0
19:18 8.4 -0.4 54 1021.1 1.6 NW 2.2 0.0 0.0
19:19 8.3 -0.5 54 1021.4 1.6 NW 2.2 0.0 0.0
19:20 8.3 -0.5 54 1021.3 1.6 NW 1.6 0.0 0.0
19:21 8.3 -0.5 54 1021.2 1.6 NE 1.6 0.0 0.0
19:22 8.2 -0.3 55 1021.2 1.6 NE 1.6 0.0 0.0
19:23 8.2 -0.3 55 1021.4 0.7 NW 1.6 0.0 0.0
19:24 8.2 -0.3 55 1021.3 0.7 NW 1.6 0.0 0.0
19:25 8.2 -0.3 55 1021.3 0.7 NW 1.6 0.0 0.0
19:26 8.2 -0.3 55 1021.3 0.7 NW 1.6 0.0 0.0
19:27 8.2 -0.3 55 1021.2 0.7 NW 1.6 0.0 0.0
19:28 8.2 -0.3 55 1021.3 0.7 NW 1.6 0.0 0.0
19:29 7.9 -0.6 55 1021.3 0.0 NW 1.6 0.0 0.0
19:31 7.8 -0.7 55 1021.3 0.0 NW 1.6 0.0 0.0
19:33 7.7 -0.8 55 1021.3 0.0 NW 0.7 0.0 0.0
19:34 7.6 -0.9 55 1021.4 1.6 N 1.6 0.0 0.0
19:35 7.5 -0.7 56 1021.3 2.2 N 2.2 0.0 0.0
19:36 7.5 -0.7 56 1021.5 2.2 N 2.2 0.0 0.0
19:37 7.4 0.4 61 1021.4 2.2 NE 2.2 0.0 0.0
19:38 7.4 0.4 61 1021.3 2.2 NE 2.2 0.0 0.0
19:39 7.4 0.4 61 1021.2 0.7 W 2.2 0.0 0.0
19:40 7.3 0.3 61 1021.5 0.0 W 2.2 0.0 0.0
19:41 7.3 0.3 61 1021.5 0.0 W 2.2 0.0 0.0
19:42 7.3 0.3 61 1021.4 0.0 W 2.2 0.0 0.0
19:43 7.2 0.2 61 1021.7 0.7 N 2.2 0.0 0.0
19:44 7.2 0.2 61 1021.4 0.7 N 2.2 0.0 0.0
19:45 7.0 0.0 61 1021.5 2.2 N 2.2 0.0 0.0
19:46 6.9 -0.1 61 1021.6 0.7 N 2.2 0.0 0.0
19:47 6.8 -0.2 61 1021.7 0.7 NW 2.2 0.0 0.0
19:48 6.8 -0.2 61 1021.4 0.7 NW 2.2 0.0 0.0
19:49 6.8 -0.2 61 1021.5 0.7 N 2.2 0.0 0.0
19:50 6.8 -0.2 61 1021.5 0.7 N 2.2 0.0 0.0
19:51 6.7 -0.3 61 1021.2 0.7 W 2.2 0.0 0.0
19:52 6.7 -0.3 61 1021.4 0.7 W 2.2 0.0 0.0
19:54 6.5 -0.5 61 1021.4 0.0 W 2.2 0.0 0.0
19:55 6.5 -0.5 61 1021.5 0.0 W 0.7 0.0 0.0
19:56 6.3 -0.4 62 1021.5 0.0 W 0.7 0.0 0.0
19:57 6.3 -0.4 62 1021.6 0.0 W 0.7 0.0 0.0
19:58 6.3 -0.4 62 1021.5 0.0 W 0.7 0.0 0.0
19:59 6.3 -0.4 62 1021.3 0.0 W 0.7 0.0 0.0
20:00 6.2 -0.5 62 1021.5 0.0 W 0.7 0.0 0.0
20:01 6.2 -0.5 62 1021.6 0.7 NW 0.7 0.0 0.0
20:02 6.2 -0.5 62 1021.4 1.6 N 1.6 0.0 0.0
20:03 6.2 -0.5 62 1021.4 1.6 N 1.6 0.0 0.0
20:04 6.1 -0.4 63 1021.5 0.0 NW 1.6 0.0 0.0
20:05 6.1 -0.4 63 1021.4 0.0 NW 1.6 0.0 0.0
20:06 6.1 -0.4 63 1021.4 0.0 NW 1.6 0.0 0.0
20:07 6.0 -0.5 63 1021.5 0.0 NW 1.6 0.0 0.0
20:08 6.0 -0.5 63 1021.4 0.0 NW 1.6 0.0 0.0
20:09 6.0 -0.5 63 1021.6 0.0 NW 1.6 0.0 0.0
20:10 6.0 -0.5 63 1021.5 0.0 NW 1.6 0.0 0.0
20:11 5.9 -0.4 64 1021.4 0.0 NW 1.6 0.0 0.0
20:13 5.9 -0.4 64 1021.6 0.0 NW 1.6 0.0 0.0
20:14 5.9 -0.4 64 1021.7 0.0 NW 0.0 0.0 0.0
20:15 5.9 -0.4 64 1021.6 0.7 NW 0.7 0.0 0.0
20:16 5.9 -0.2 65 1021.6 0.0 N 0.7 0.0 0.0
20:17 5.9 -0.2 65 1021.6 0.0 N 0.7 0.0 0.0
20:18 5.9 -0.2 65 1021.6 0.0 N 0.7 0.0 0.0
20:19 5.9 -0.2 65 1021.5 0.0 N 0.7 0.0 0.0
20:20 5.9 -0.2 65 1021.5 0.0 N 0.7 0.0 0.0
20:21 5.8 -0.3 65 1021.8 0.0 N 0.7 0.0 0.0
20:22 5.8 -0.3 65 1021.7 0.7 N 0.7 0.0 0.0
20:23 5.7 -0.4 65 1021.7 0.0 N 0.7 0.0 0.0
20:24 5.7 -0.4 65 1021.6 0.7 N 0.7 0.0 0.0
20:25 5.7 -0.4 65 1021.6 0.7 N 0.7 0.0 0.0
20:26 5.6 -0.5 65 1021.6 1.6 NE 1.6 0.0 0.0
20:27 5.6 -0.5 65 1021.7 1.6 N 1.6 0.0 0.0
20:28 5.5 -0.6 65 1021.6 2.2 NE 2.2 0.0 0.0
20:29 5.5 -0.6 65 1021.5 2.2 N 2.2 0.0 0.0
20:30 5.5 -0.6 65 1021.5 0.7 N 2.2 0.0 0.0
20:32 5.4 -0.6 65 1021.6 1.6 N 2.2 0.0 0.0
20:33 5.4 -0.6 65 1021.6 2.2 E 2.2 0.0 0.0
20:34 5.4 -0.6 65 1021.5 2.2 E 2.2 0.0 0.0
20:35 5.4 -0.4 66 1021.4 2.2 NE 2.2 0.0 0.0
20:36 5.4 -0.4 66 1021.7 1.6 NW 2.2 0.0 0.0
20:37 5.3 -0.5 66 1021.6 2.2 NE 2.2 0.0 0.0
20:38 5.3 -0.5 66 1021.5 2.2 NE 2.2 0.0 0.0
20:39 5.3 -0.3 67 1021.6 2.2 N 2.2 0.0 0.0
20:40 5.3 -0.3 67 1021.7 2.2 NW 2.2 0.0 0.0
20:41 5.3 -0.3 67 1021.5 1.6 NW 2.2 0.0 0.0
20:42 5.3 -0.3 67 1021.6 1.6 NW 2.2 0.0 0.0
20:43 5.3 -0.3 67 1021.4 2.2 N 2.2 0.0 0.0
20:44 5.3 -0.3 67 1021.5 2.2 N 2.2 0.0 0.0
20:45 5.3 -0.3 67 1021.7 1.6 N 2.2 0.0 0.0
20:46 5.3 -0.1 68 1021.6 2.2 NE 2.2 0.0 0.0
20:47 5.3 0.1 69 1021.6 1.6 N 2.2 0.0 0.0
20:48 5.4 0.2 69 1021.6 1.6 NW 2.2 0.0 0.0
20:49 5.4 0.4 70 1021.8 1.6 N 2.2 0.0 0.0
20:50 5.4 0.4 70 1021.5 1.6 N 2.2 0.0 0.0
20:52 5.5 0.5 70 1021.7 3.8 N 3.8 0.0 0.0
20:53 5.5 0.5 70 1021.9 3.8 N 3.8 0.0 0.0
20:54 5.6 0.6 70 1021.5 3.1 N 3.8 0.0 0.0
20:55 5.6 0.6 70 1021.7 3.1 N 3.8 0.0 0.0
20:56 5.7 0.9 71 1021.6 3.8 N 3.8 0.0 0.0
20:57 5.7 0.9 71 1021.7 3.1 NE 3.8 0.0 0.0
20:58 5.7 0.9 71 1021.7 3.1 NE 3.8 0.0 0.0
20:59 5.7 0.9 71 1021.7 4.5 N 4.5 0.0 0.0
21:00 5.8 1.0 71 1021.9 3.8 N 4.5 0.0 0.0
21:01 5.8 1.0 71 1021.6 3.8 N 4.5 0.0 0.0
21:02 5.8 1.0 71 1021.7 3.8 N 4.5 0.0 0.0
21:03 5.8 1.0 71 1021.7 3.8 N 4.5 0.0 0.0
21:04 5.8 1.0 71 1021.7 3.8 N 4.5 0.0 0.0
21:05 5.8 1.0 71 1021.7 3.8 N 4.5 0.0 0.0
21:06 5.8 1.0 71 1021.6 3.8 N 4.5 0.0 0.0
21:07 6.0 1.3 72 1021.6 2.2 NE 4.5 0.0 0.0
21:08 6.0 1.3 72 1021.6 2.2 NE 4.5 0.0 0.0
21:12 6.0 1.3 72 1021.6 2.2 N 3.8 0.0 0.0
21:13 6.1 1.4 72 1021.6 2.2 N 3.8 0.0 0.0
21:14 6.1 1.4 72 1021.6 2.2 N 3.8 0.0 0.0
21:15 6.1 1.6 73 1021.8 2.2 N 3.8 0.0 0.0
21:16 6.1 1.6 73 1021.6 2.2 N 3.8 0.0 0.0
21:17 6.1 1.6 73 1021.6 2.2 N 3.1 0.0 0.0
21:18 6.1 1.6 73 1021.6 2.2 N 3.1 0.0 0.0
21:19 6.1 1.6 73 1021.4 1.6 N 3.1 0.0 0.0
21:20 6.1 1.6 73 1021.7 1.6 N 3.1 0.0 0.0
21:21 6.1 1.6 73 1021.6 2.2 N 3.1 0.0 0.0
21:22 6.1 1.6 73 1021.8 1.6 N 3.1 0.0 0.0
21:23 6.1 1.6 73 1021.6 2.2 NW 2.2 0.0 0.0
21:24 6.1 1.6 73 1021.8 2.2 NE 2.2 0.0 0.0
21:25 6.1 1.6 73 1021.6 2.2 N 2.2 0.0 0.0
21:26 6.1 1.6 73 1021.5 2.2 N 2.2 0.0 0.0
21:27 6.1 1.6 73 1021.8 2.2 NE 2.2 0.0 0.0
21:28 6.1 1.6 73 1021.8 2.2 NW 2.2 0.0 0.0
21:30 6.1 1.6 73 1021.6 1.6 N 2.2 0.0 0.0
21:31 6.1 1.6 73 1021.4 1.6 N 2.2 0.0 0.0
21:32 6.1 1.8 74 1021.8 2.2 N 2.2 0.0 0.0
21:33 6.1 1.8 74 1021.5 2.2 N 2.2 0.0 0.0
21:34 6.1 1.8 74 1021.7 1.6 N 2.2 0.0 0.0
21:35 6.1 1.8 74 1021.6 2.2 NE 2.2 0.0 0.0
21:36 6.1 1.8 74 1021.9 2.2 N 3.1 0.0 0.0
21:37 6.1 1.8 74 1021.9 2.2 N 3.1 0.0 0.0
21:38 6.1 1.8 74 1021.9 2.2 NE 3.1 0.0 0.0
21:39 6.0 1.7 74 1021.8 3.1 N 3.1 0.0 0.0
21:40 6.0 1.7 74 1021.6 2.2 NE 3.1 0.0 0.0
21:41 6.0 1.7 74 1021.8 2.2 N 3.1 0.0 0.0
21:42 6.0 1.7 74 1021.9 2.2 N 3.1 0.0 0.0
21:43 6.0 1.7 74 1021.8 2.2 N 3.1 0.0 0.0
21:44 6.0 1.7 74 1021.7 2.2 N 3.1 0.0 0.0
21:45 6.0 1.7 74 1021.8 1.6 N 3.1 0.0 0.0
21:46 6.0 1.7 74 1021.9 1.6 N 3.1 0.0 0.0
21:47 5.9 1.6 74 1021.9 0.7 N 3.1 0.0 0.0
21:48 5.9 1.6 74 1021.8 0.7 N 3.1 0.0 0.0
21:50 5.9 1.6 74 1021.9 1.6 N 2.2 0.0 0.0
21:51 5.9 1.8 75 1021.8 1.6 N 2.2 0.0 0.0
21:52 5.8 1.7 75 1021.9 1.6 N 2.2 0.0 0.0
21:53 5.8 1.7 75 1021.8 1.6 N 2.2 0.0 0.0
21:54 5.8 1.7 75 1021.7 1.6 N 1.6 0.0 0.0
21:55 5.8 1.7 75 1021.8 1.6 N 1.6 0.0 0.0
21:56 5.8 1.7 75 1021.8 1.6 N 1.6 0.0 0.0
21:57 5.8 1.7 75 1021.8 1.6 N 1.6 0.0 0.0
21:58 5.8 1.7 75 1021.6 1.6 N 1.6 0.0 0.0
21:59 5.8 1.7 75 1021.8 1.6 N 1.6 0.0 0.0
22:00 5.8 1.7 75 1021.7 2.2 N 2.2 0.0 0.0
22:01 5.7 1.6 75 1021.8 2.2 N 2.2 0.0 0.0
22:02 5.7 1.6 75 1021.7 0.7 N 2.2 0.0 0.0
22:03 5.7 1.6 75 1021.8 0.7 N 2.2 0.0 0.0
22:04 5.7 1.6 75 1022.1 1.6 N 2.2 0.0 0.0
22:05 5.7 1.6 75 1021.8 2.2 NE 2.2 0.0 0.0
22:06 5.7 1.6 75 1021.8 2.2 N 2.2 0.0 0.0
22:07 5.7 1.6 75 1021.9 2.2 N 2.2 0.0 0.0
22:09 5.7 1.6 75 1021.9 1.6 NE 2.2 0.0 0.0
22:10 5.7 1.6 75 1021.8 1.6 NE 2.2 0.0 0.0
22:11 5.7 1.6 75 1021.8 0.7 NE 2.2 0.0 0.0
22:12 5.7 1.6 75 1021.8 0.7 N 2.2 0.0 0.0
22:13 5.7 1.6 75 1021.8 0.7 N 2.2 0.0 0.0
22:14 5.7 1.6 75 1021.9 0.7 N 2.2 0.0 0.0
22:15 5.7 1.6 75 1021.8 0.0 N 2.2 0.0 0.0
22:16 5.7 1.6 75 1022.0 0.0 N 2.2 0.0 0.0
22:17 5.7 1.6 75 1021.9 0.0 N 2.2 0.0 0.0
22:18 5.7 1.4 74 1022.0 0.0 N 1.6 0.0 0.0
22:19 5.7 1.4 74 1021.9 0.0 N 1.6 0.0 0.0
22:20 5.7 1.4 74 1021.8 0.0 N 1.6 0.0 0.0
22:21 5.7 1.4 74 1022.0 0.0 N 0.7 0.0 0.0
22:22 5.7 1.4 74 1021.8 0.7 N 0.7 0.0 0.0
22:23 5.7 1.4 74 1022.0 0.7 NE 0.7 0.0 0.0
22:24 5.7 1.4 74 1022.1 0.7 NE 0.7 0.0 0.0
22:25 5.7 1.4 74 1021.7 0.0 N 0.7 0.0 0.0
22:26 5.7 1.4 74 1021.9 0.0 N 0.7 0.0 0.0
22:27 5.7 1.4 74 1022.1 0.0 N 0.7 0.0 0.0
22:29 5.7 1.2 73 1022.0 0.7 N 0.7 0.0 0.0
22:30 5.7 1.2 73 1022.0 0.0 N 0.7 0.0 0.0
22:31 5.7 1.2 73 1021.9 0.7 N 0.7 0.0 0.0
22:32 5.7 1.2 73 1022.1 0.7 NE 0.7 0.0 0.0
22:33 5.7 1.2 73 1021.9 0.0 NE 0.7 0.0 0.0
22:34 5.7 1.2 73 1022.0 0.0 NE 0.7 0.0 0.0
22:35 5.7 1.2 73 1022.1 0.0 NE 0.7 0.0 0.0
22:36 5.7 1.2 73 1022.2 0.0 NE 0.7 0.0 0.0
22:37 5.7 1.2 73 1021.8 0.7 N 0.7 0.0 0.0
22:38 5.7 1.2 73 1021.8 0.7 N 0.7 0.0 0.0
22:39 5.7 1.2 73 1022.2 0.7 N 0.7 0.0 0.0
22:40 5.7 1.2 73 1022.2 0.7 N 0.7 0.0 0.0
22:41 5.7 1.2 73 1022.1 0.7 N 0.7 0.0 0.0
22:42 5.7 1.2 73 1022.2 1.6 N 1.6 0.0 0.0
22:43 5.7 1.2 73 1022.1 1.6 NE 1.6 0.0 0.0
22:44 5.7 1.2 73 1022.0 1.6 NE 1.6 0.0 0.0
22:45 5.7 1.2 73 1021.9 1.6 N 1.6 0.0 0.0
22:46 5.7 1.2 73 1022.0 1.6 NE 1.6 0.0 0.0
22:48 5.7 1.2 73 1022.1 0.7 N 1.6 0.0 0.0
22:49 5.7 1.2 73 1021.8 1.6 N 1.6 0.0 0.0
22:50 5.7 1.2 73 1022.1 1.6 N 1.6 0.0 0.0
22:51 5.7 1.2 73 1022.1 0.0 N 1.6 0.0 0.0
22:52 5.7 1.2 73 1022.2 1.6 NE 3.1 0.0 0.0
22:53 5.7 1.2 73 1022.0 3.1 NE 3.1 0.0 0.0
22:54 5.7 1.1 72 1022.1 3.8 NE 3.8 0.0 0.0
22:55 5.7 1.1 72 1022.1 2.2 N 3.8 0.0 0.0
22:56 5.7 1.1 72 1021.8 2.2 NE 3.8 0.0 0.0
22:57 5.7 1.1 72 1022.0 2.2 N 3.8 0.0 0.0
22:58 5.7 1.1 72 1022.1 2.2 NE 3.8 0.0 0.0
22:59 5.7 1.1 72 1022.1 1.6 N 3.8 0.0 0.0
23:00 5.7 1.1 72 1021.9 0.7 N 3.8 0.0 0.0
23:01 5.7 1.1 72 1021.9 0.7 N 3.8 0.0 0.0
23:02 5.7 1.1 72 1022.0 0.7 N 3.8 0.0 0.0
23:03 5.7 1.1 72 1021.9 0.7 N 3.8 0.0 0.0
23:04 5.7 1.1 72 1022.0 0.7 N 3.8 0.0 0.0
23:05 5.7 1.1 72 1022.0 0.7 N 3.1 0.0 0.0
23:06 5.7 1.1 72 1022.0 0.7 N 3.1 0.0 0.0
23:07 5.7 1.1 72 1022.0 1.6 NW 3.1 0.0 0.0
23:08 5.7 1.1 72 1022.0 1.6 NW 3.1 0.0 0.0
23:09 5.7 1.1 72 1022.2 1.6 NW 1.6 0.0 0.0
23:10 5.7 1.1 72 1022.0 1.6 NW 1.6 0.0 0.0
23:11 5.7 1.1 72 1022.0 2.2 NW 2.2 0.0 0.0
23:13 5.6 0.8 71 1021.8 2.2 N 2.2 0.0 0.0
23:14 5.6 0.8 71 1021.9 2.2 NW 2.2 0.0 0.0
23:15 5.6 0.8 71 1022.0 2.2 N 2.2 0.0 0.0
23:17 5.6 0.8 71 1021.9 2.2 N 2.2 0.0 0.0
23:18 5.6 0.8 71 1021.9 2.2 NW 2.2 0.0 0.0
23:19 5.6 0.8 71 1021.9 1.6 NW 2.2 0.0 0.0
23:20 5.5 0.7 71 1021.9 2.2 NE 2.2 0.0 0.0
23:21 5.5 0.7 71 1021.8 2.2 NE 2.2 0.0 0.0
23:22 5.5 0.7 71 1021.9 1.6 NW 2.2 0.0 0.0
23:23 5.5 0.7 71 1022.1 0.7 N 2.2 0.0 0.0
23:24 5.5 0.7 71 1022.0 0.7 N 2.2 0.0 0.0
23:25 5.5 0.7 71 1022.0 0.7 N 2.2 0.0 0.0
23:26 5.5 0.7 71 1022.0 0.7 N 2.2 0.0 0.0
23:27 5.5 0.7 71 1022.0 2.2 NW 2.2 0.0 0.0
23:28 5.5 0.7 71 1022.1 2.2 N 2.2 0.0 0.0
23:29 5.5 0.7 71 1021.9 2.2 N 2.2 0.0 0.0
23:30 5.5 0.7 71 1022.0 2.2 N 2.2 0.0 0.0
23:31 5.4 0.6 71 1022.0 2.2 N 2.2 0.0 0.0
23:32 5.4 0.8 72 1022.0 3.1 N 3.1 0.0 0.0
23:33 5.4 0.8 72 1021.8 2.2 N 3.1 0.0 0.0
23:34 5.4 0.8 72 1022.2 2.2 N 3.1 0.0 0.0
23:35 5.4 0.8 72 1021.8 3.1 NE 3.1 0.0 0.0
23:36 5.4 0.8 72 1022.0 1.6 N 3.1 0.0 0.0
23:38 5.3 0.7 72 1022.1 1.6 NE 3.1 0.0 0.0
23:39 5.3 0.7 72 1021.9 1.6 NE 3.1 0.0 0.0
23:40 5.3 0.7 72 1022.0 2.2 NE 3.1 0.0 0.0
23:41 5.3 0.7 72 1021.8 2.2 NE 3.1 0.0 0.0
23:42 5.3 0.7 72 1021.9 2.2 N 3.1 0.0 0.0
23:43 5.3 0.5 71 1022.2 2.2 NE 3.1 0.0 0.0
23:44 5.2 0.4 71 1021.8 1.6 N 3.1 0.0 0.0
23:45 5.2 0.4 71 1021.8 1.6 N 3.1 0.0 0.0
23:46 5.2 0.4 71 1022.1 1.6 N 3.1 0.0 0.0
23:47 5.2 0.4 71 1021.8 2.2 N 2.2 0.0 0.0
23:48 5.2 0.4 71 1022.1 2.2 N 2.2 0.0 0.0
23:49 5.2 0.4 71 1021.9 3.1 N 3.1 0.0 0.0
23:50 5.2 0.4 71 1021.9 2.2 N 3.1 0.0 0.0
23:51 5.2 0.6 72 1021.9 2.2 N 3.1 0.0 0.0
23:52 5.2 0.6 72 1021.9 2.2 N 3.1 0.0 0.0
23:53 5.2 0.6 72 1022.0 2.2 N 3.1 0.0 0.0
23:54 5.2 0.6 72 1021.9 2.2 N 3.1 0.0 0.0
23:55 5.2 0.6 72 1021.9 3.1 NNE 3.1 0.0 0.0
23:57 5.2 0.6 72 1021.9 2.2 N 3.1 0.0 0.0
23:58 5.2 0.6 72 1022.0 2.2 N 3.1 0.0 0.0
23:59 5.3 0.7 72 1021.9 2.2 N 3.1 0.0 0.0

 

 

UK - WEATHER STATION TOPSITES - UK World Weather Websites

Copyright © Carnkie Weather 2009 - 2020.